[公告] 四月份置底閒聊文

作者
看板 Gossiping
時間
留言 則留言,73人參與討論
推噓 374推 417噓 482→
加入最愛文章備份
▄▅▂ ▂▄and▅▃▄▅▆▅▄▂▄▅▃) ▂▃▄▅▄▃╲ ╲▅▇﹏﹎\ ﹨/ \′ |▂▄\<" ︿|}▄▂"*|\ ﹨ ﹨▃▆▅▃▂▋▎▎ ◣\|▎′▅▆ 〃 ◢▊▎▏"|▊█"'((/ `'"︿▉/V ▂▄◤`~▄▆▇█▇█▆▄▅▆ ▃▂▄▆▇█▅▄▅▃▅▄▃▂▃▄▄▆▄▃▄▂"v/▄▇﹏﹏︷ㄧ╖/ |▁▁▂▁/ ▇▆ ︿υ( ▆▄ ▄▃╱﹊\﹏﹏ 作者: Kay731 (K少) 看板: Gossiping 標題: [公告] 四月份置底閒聊文 時間: Sun Apr 1 08:52:54 2018 到了四月了 這個月有春假喔~~ 大家可以規劃一下假日出遊的去處! 兒童節快樂!! 愚人節快樂!! -- ※ 發信站: 批踢踢實業坊(ptt.cc), 來自: 36.226.144.32 ※ 文章網址: https://www.ptt.cc/bbs/Gossiping/M.1522543978.A.542.html
1Fstan1231 (105留言): 吃屎 04/24 00:45
2FMews (32留言): 吃太好了吧 04/24 00:47
3Fsnorkuuera: 辛苦了 加油! 04/24 01:05
4Fgod060119 (17留言): 智障:) 04/24 01:15
6FL1ON (174留言): 咦 04/24 01:54
7Fgod060119 (17留言): 25號快到了 希望愛暴雷的廢物 走路不會被車撞死:) 04/24 03:10
8FL1ON (174留言): 好 04/24 03:58
9Finvidia (28留言): 姆咪 (^_^)/ 04/24 06:41
11FL1ON (174留言): 顯卡 xjp 姆咪姆咪 04/24 07:00
12Fxjp004123 (37留言): 輻射早 04/24 07:01
13Firumina: 輻射羊 好恐怖OAO 04/24 07:02
14Finvidia (28留言): 啥時進化輻射羊ㄉ 04/24 07:58
15Finvidia (28留言): 獅子醬 安安 04/24 07:58
16Fpony666: 輻射姆咪!! 04/24 08:04
17FL1ON (174留言): 小馬早 艾露米娜早 04/24 08:06
18Fasiasssh (45留言): 好可怕 我發現我只剩600石 不夠以後的抽卡耶 04/24 08:12
19Fasiasssh (45留言): 短期目標 小學生 伊絲塔 梅林 04/24 08:12
20Fasiasssh (45留言): 這3隻明顯600石不夠R 04/24 08:13
21FL1ON (174留言): 宅亞早 04/24 08:15
22FWhitedew: 早 04/24 08:16
23Fasiasssh (45留言): 早 我好焦慮 石頭好少 04/24 08:20
24Fcynthia0620 (46留言): 瑪德今天考到六點就解脫了!!! 04/24 08:24
25Fasiasssh (45留言): 考到早上6點 = =? 04/24 08:26
26Fcynthia0620 (46留言): 現在都幾點了 04/24 08:28
27Fcynthia0620 (46留言): yorkyoung: 五樓喜歡在馬眼塞花生 04/24 08:28
28Fdan5120 (98留言): 6點還早欸 中午睡一下八 04/24 08:40
29Fstan1231 (105留言): 肥物 04/24 08:44
30Fa98450333 (29留言): 喔 04/24 08:57
31Fdan5120 (98留言): ㄈ仔 04/24 09:04
32FL1ON (174留言): 白白 辛西亞 丹丹 史丹 ㄈ仔 早安 04/24 09:07
33FL1ON (174留言): 宅亞你可以課金當歐洲人 04/24 09:07
34FL1ON (174留言): 辛西亞辛苦了,晚上來萬華鬆一下 04/24 09:08
35FL1ON (174留言): 約砲羊人呢?給力呢 04/24 09:08
36Fiovoecu (10留言): 不准塞花生 04/24 09:26
37Fasiasssh (45留言): 我4窮學生 不能課金 04/24 09:38
38FSkydier (44留言): 你是窮學生 那這邊都是遊民了 04/24 09:40
39Fa98450333 (29留言): 幾歲了還在窮學生... 04/24 09:57
40Fwryi1205 (41留言): 我窮學生 04/24 10:06
41FL1ON (174留言): you 天哥 ryi1205 早安 04/24 10:40
42FL1ON (174留言): 宅亞你他媽領美金的人,還在窮學生個屁 04/24 10:41
43Fyorkyoung (52留言): 求包養 04/24 10:56
44Fcynthia0620 (46留言): 樓上沒節操 04/24 11:00
45Fmarkkao456: 姆咪~ 04/24 11:07
46Ffantasibear (103留言): 甦醒早安~~每晚夢境都有鋼琴音樂背景 真棒 04/24 11:10
47Fstan1231 (105留言): ㄈ仔養我 04/24 11:12
48Fwryi1205 (41留言): 錢 04/24 11:13
49Fdan5120 (98留言): 肛 04/24 11:17
50Fasiasssh (45留言): 問一下 Passionlip強嗎 04/24 12:07
51Fstan1231 (105留言): 很弱 不要拿 04/24 12:32
52Fasiasssh (45留言): 大奶怪耶 不抽嗎 04/24 13:01
53Fwryi1205 (41留言): no 04/24 13:09
55FL1ON (174留言): 海爾早。宅亞不要再抽了,養我好ㄇ 04/24 13:46
56Fmazz: 雷霆爛透ㄌ 04/24 14:05
58FL1ON (174留言): 馬Z 糟糕天 早 糟糕天你那張照片好好笑 04/24 14:42
60FL1ON (174留言): 幻熊早安 04/24 14:45
61Fwryi1205 (41留言): 04/24 14:45
62FBignana: 安安 04/24 14:47
63FL1ON (174留言): 大那那安安 04/24 14:47
66Fstan1231 (105留言): 廢物 04/24 15:45
67FL1ON (174留言): 累 睡一會,大家晚安 04/24 15:47
68FHyver (42留言): 獅掰掰掰掰 04/24 15:48
69Fxyz4594 (18留言): 我 04/24 16:15
70Fxyz4594 (18留言): 真 04/24 16:16
71Fxyz4594 (18留言): 的 04/24 16:16
72Fxyz4594 (18留言): 好 04/24 16:16
73Fxyz4594 (18留言): 帥 04/24 16:16
74FHyver (42留言): 樓上醒醒,不要說夢話 04/24 16:32
75Fdan5120 (98留言): 直笛ㄈㄓ有人在種水草的ㄇ 04/24 16:40
76FETABS: 天啊天啊 https://disp.cc/b/163-aav4 04/24 17:00
78Fcodevery0117: ETABS是在洗三小 04/24 17:12
79FETABS: 天啊天啊 https://disp.cc/b/163-aav4 04/24 17:12
80Fwryi1205 (41留言): 04/24 17:18
81Ffkukg52155: 有沒有版規管樓上那種的 每篇一直洗真的很煩 04/24 17:23
82Fcynthia0620 (46留言): 連置地都來 04/24 17:25
83FGalLe5566 (122留言): 這一池沒有想要的 PASS 04/24 17:28
84FHyver (42留言): 我記得水水懂 04/24 17:30
85Fasiasssh (45留言): 沒抽等小學生 04/24 17:31
86Fasiasssh (45留言): https://i.imgur.com/LUd6tQZ.jpg 給力 刷這個 04/24 17:32
87Fdan5120 (98留言): 水水養魚養烏龜的樣子八 老了覺得種種草好養生 04/24 17:32
88FHyver (42留言): 到底在天啊三小啦幹 04/24 17:36
89Fkiminocodo (19留言): 嗚嘻^_^ 04/24 17:37
90FGalLe5566 (122留言): 我是用分身刷欸... 04/24 17:38
91FGalLe5566 (122留言): 之前我就講這個 拿來刷友情點用的 04/24 17:38
92Fkiminocodo (19留言): 嘻嗚^_^ 04/24 17:39
93FGalLe5566 (122留言): 凱咪口豆 怎麼了 04/24 17:39
94Fkiminocodo (19留言): 給力,這只是我的口頭禪喇 嗚嘻 嘻嗚^_^ 04/24 17:44
95Fasiasssh (45留言): 估算了一下 長草期只能刷16萬絆 好少喔 04/24 17:45
96FGalLe5566 (122留言): 好吧 原來如此 原來是這麼一回事嗎? 04/24 17:45
97FGalLe5566 (122留言): 我還有主線要打... 04/24 17:45
98Fasiasssh (45留言): 所以你的分身應該有20隻絆10角色 對吧 04/24 17:46
99FGalLe5566 (122留言): 沒欸因為還有體力問題 所以是好幾隻輪流刷 04/24 17:48

推薦文章

101FGalLe5566 (122留言): 宅... 04/24 17:52
102FGalLe5566 (122留言): 你左下角那隻醜醜的黑臉是啥? 04/24 17:52
103Fwryi1205 (41留言): 非洲人 04/24 17:54
104FMews (32留言): 那隻是無臉男 04/24 17:55
105Fasiasssh (45留言): 那隻那麼強你不認識? 04/24 17:55
106FGalLe5566 (122留言): 好吧= = 04/24 17:55
107Fasiasssh (45留言): 未來清姬的代理人耶 等清姬滿絆以後 速刷種火就靠他了 04/24 17:56
108Fkiminocodo (19留言): 嘻嗚 嗚嘻 04/24 17:57
109Fasiasssh (45留言): https://i.imgur.com/oT0N8Uk.jpg 貧民配置 04/24 17:57
110FGalLe5566 (122留言): 我還有狂蘭跟狂貓能練 04/24 17:59
111Fbadbadook (6留言): 好 屌 04/24 18:37
112Finvidia (28留言): 姆咪 Q_Q Q_Q Q_Q 04/24 18:39
113Fwryi1205 (41留言): 噁 04/24 18:50
114Fdan5120 (98留言): 風好大 04/24 18:50
115FSkydier (44留言): 在恆春待第3天了 還有哪裡好玩? 04/24 19:03
116FTempoStorm: TED強無敵 抱歉我錯了 04/24 19:07
117Fyorkyoung (52留言): 晚安 04/24 19:28
118Fyorkyoung (52留言): 來去睡 04/24 19:28
119FSkydier (44留言): 88 04/24 19:30
120Fkiminocodo (19留言): 大家晚安,我也要睡了,嗚嘻!!! 04/24 19:32
121FHyver (42留言): 掰掰掰掰掰掰ㄅ 04/24 19:37
122Fwryi1205 (41留言): 04/24 19:38
124FSkydier (44留言): ^Q^ 04/24 20:28
126FBenbenyale (40留言): 我把蚊香蛙蛙放在製作人辦公室 04/24 21:14
127FSkydier (44留言): 每天prprprprprprprprpr 04/24 21:14
128FRaskolnikov: 高級歐美人不是很愛酸說亞洲人愛捕鯨 04/24 21:39
129Ffun5566: 這個板居然有人會寫幾十萬人考過的中學物理考古題, 害me 04/24 22:01
130Ffun5566: 剛才浪費了 4 p幣。 04/24 22:01
132Fwryi1205 (41留言): 幹 赤貧 04/24 22:26
133FC13H16ClNO: 馬的這兩天避一避了 看來一票人想玩爆雷文 04/24 22:38
134FMews (32留言): 鋼鐵人死了 美國隊長變成殘障賣口香糖 04/24 22:39
135Fdan5120 (98留言): 米國隊長一定死的 其他再死個兩隻 其他雜魚隨意 04/24 23:04
136Fstan1231 (105留言): 女的兩個一定死 04/24 23:06
137FL1ON (174留言): 我沒有雷可以爆 04/24 23:06
138Fdan5120 (98留言): 覽較辣 大奶女巫不能死 04/24 23:07
139FMews (32留言): 自己當雷啊 衝進電影院大喊美國隊長死了 04/24 23:07
140Fdan5120 (98留言): 米國隊長便當雷不知道放多久了 4真的 04/24 23:09
141Fcynthia0620 (46留言): 找不到人一起去看...... 04/24 23:11
142FL1ON (174留言): 辛西亞 找紐約羊去ㄚ 04/24 23:17
143FL1ON (174留言): 海鳥你484騙我 04/24 23:17
144FMews (32留言): 看電影都不揪的 哀 04/24 23:19
145FChrisDavis: ㄟ 我可不可以刪掉暴雷推文阿 04/24 23:27
146FL1ON (174留言): xjp 你的貓好帥 04/24 23:28
147FL1ON (174留言): 可以刪爆雷推文喔 版規有寫,ok的 04/24 23:28
148FMews (32留言): 你說刪就刪? 04/24 23:29
149Fdan5120 (98留言): LOKI老杯是薩諾斯 04/24 23:29
150FYU0121 (48留言): 3nm軟屌菌友呢 04/24 23:30
151FChrisDavis: loki老爸不是揆爺嗎 04/24 23:30
152Fdan5120 (98留言): 味甚麼MLB板主惠來這邊辣 去條板灌水蠟 04/24 23:34
153FYU0121 (48留言): 你只要知道他軟屌就好了 04/24 23:38
154Ffantasibear (103留言): 玉回來了!!! 04/24 23:41
155FYU0121 (48留言): 我是菌友終結者 04/24 23:47
156Ffantasibear (103留言): 我要看貓貓~~~(⊙v⊙) 04/24 23:50
161FL1ON (174留言): 愛玉耶 04/24 23:55
163Fawfulday (8留言): 睡覺了,至底宅宅晚安 04/24 23:59
164FL1ON (174留言): 糟糕天晚安 04/25 00:00
165Ffantasibear (103留言): 怎麼多一隻長毛貓? 04/25 00:05
166Ffantasibear (103留言): 阿苦變肥了~~~ 04/25 00:06
167FYU0121 (48留言): 其實那邊總共有五隻貓 04/25 00:07
168FBenbenyale (40留言): 菌友興奮圖呢 04/25 00:10
169Ffantasibear (103留言): 五隻!可以當youtuber了~~ 04/25 00:13
170Ffun5566: 在剛才me po的新聞裡, 問了1題幾十萬人考過的電學題目,第 04/25 00:16
171FYU0121 (48留言): https://i.imgur.com/9bcyNJR.jpg 菌友抓癢 04/25 00:16
172Ffun5566: 1個答對答案的 給p幣 (這個板有人有讀過中學嗎?) 04/25 00:17
173Fstan1231 (105留言): ㄆ玉說好的喝茶ㄋ 04/25 00:19
174FYU0121 (48留言): 我有喝呀 21000日幣/30min 04/25 00:28
175Fstan1231 (105留言): 我說請我喝 04/25 00:29
176FYU0121 (48留言): 你自己買張機票趣喝 04/25 00:31
177Fstan1231 (105留言): ZZ 04/25 00:32
178FBenbenyale (40留言): 沒錢請史丹 04/25 00:35
179FYU0158: YU0121一出桶就一堆廢文 04/25 00:42
180FYU0158: 只好再檢舉一次 04/25 00:43
181FL1ON (174留言): 日本茶好喝嗎 04/25 00:43
182FBenbenyale (40留言): 迷你玉跟屁玉不是同一人喔 04/25 00:47
184Ffantasibear (103留言): 好甜的顏色~~~~ 04/25 01:16
185FBenbenyale (40留言): 阿苦不苦了 有幸福 04/25 01:17
186FL1ON (174留言): 我是不是很沒同理心?看到自稱憂鬱症的直接叫他滾?而且覺得 04/25 02:06
187FL1ON (174留言): 很麻煩不想接近這種人 04/25 02:06
188FL1ON (174留言): 我也只想說,怎麼說要死還沒去死咧... 04/25 02:08
189FL1ON (174留言): 覺得,自己變得hen殘忍 04/25 02:09
190Fyorkyoung (52留言): QQ 04/25 02:55
191Ffantasibear (103留言): 你最近很中二www 壓力要記得宣洩~~ 04/25 03:03
192Ffantasibear (103留言): 我之前有段時間也會這樣 04/25 03:04
193Ffantasibear (103留言): 來去看靈探 04/25 03:13
194FL1ON (174留言): 好 。 白天的工作其實讓我改變不少ㄌ 04/25 03:18
195FHyver (42留言): 大笨鳥好吵啊啊啊啊啊啊 04/25 04:32
196FHyver (42留言): 嗚嗚嗚嗚嗚什麼啦要嗚去沒人的地方嗚啦 04/25 04:32
197FL1ON (174留言): 拍拍 04/25 05:00
198Finvidia (28留言): 姆咪 >_< 04/25 05:39
199FL1ON (174留言): 顯卡姆咪姆咪 04/25 05:51

推薦文章

200Finvidia (28留言): 獅子醬 安安姆咪 04/25 06:02
201FL1ON (174留言): https://i.imgur.com/ECzjsGQ.jpg 姆咪姆咪 04/25 06:12
202Fyorkyoung (52留言): 早安姆咪^0^ 04/25 06:14
203FL1ON (174留言): 約克羊姆咪姆咪 04/25 06:19
204Fiovoecu (10留言): 不准姆咪 04/25 06:42
205FL1ON (174留言): iou 姆咪姆咪 04/25 07:14
207Fdan5120 (98留言): 姆咪姆咪 04/25 08:32
208FL1ON (174留言): 宅亞 丹丹 姆咪姆咪 04/25 08:32
209Fasiasssh (45留言): 幫我看一下 美股跌多少 04/25 08:37
211FL1ON (174留言): 跌500時我就放鞭炮ㄌ 收盤應該跌400多 04/25 09:01
212FL1ON (174留言): 史丹姆咪姆咪 04/25 09:02
215FHyver (42留言): 請問南部哪裡有跟馬公飯糰一樣好吃的店? 04/25 09:56
216FTempoStorm: 垃圾76人粉 祝某版76人粉必有報應 鄉民都是垃圾 04/25 09:58
217FTempoStorm: 未來不來了 PTT果然垃圾聚集地 除了我和某些都是垃圾 04/25 09:59
218Fa98450333 (29留言): 早安 04/25 10:38
219FL1ON (174留言): 史丹 xjp 海爾 ㄈ仔 早安 04/25 10:44
220FL1ON (174留言): 節奏早安 04/25 10:44
221Fdan5120 (98留言): ㄈ仔 04/25 10:44
222Fdan5120 (98留言): 阿醬有看大谷ㄇ 被砸鍋了 04/25 10:45
223FYU0121 (48留言): 莖ㄈ呢 04/25 11:22
224Fwryi1205 (41留言): 04/25 12:14
225Fstan1231 (105留言): ㄈ仔年薪千萬大尾ㄌ 04/25 12:14
226Fyorkyoung (52留言): 有人可以幫我想下一篇廢文主題嗎 04/25 12:18
227Fiovoecu (10留言): 不准發廢文 04/25 12:21
228Fwryi1205 (41留言): 午餐吃甚麼之類的 04/25 12:21
229Fwryi1205 (41留言): 幹 輸錢 04/25 12:24
230FHyver (42留言): 動物叫聲文 04/25 12:29
231FL1ON (174留言): 丹丹 我上班在忙,沒跟到QQ 04/25 12:46
232FL1ON (174留言): 愛玉 ryo1205早安 04/25 12:46
234FL1ON (174留言): xjp 這個好笑 04/25 13:18
235FWaitaha: 佛劍分說#3659 04/25 13:56
236FYU0121 (48留言): https://i.imgur.com/EPYmWI1.jpg 菌友吐血了 04/25 13:56
237FL1ON (174留言): 為什麼吐血ㄋ 04/25 13:59
238Fa98450333 (29留言): 你能不好好工作不要宅啊 04/25 14:06
239FGalLe5566 (122留言): 不是我愛說 貓咪可不可愛 臉型占了一半 04/25 14:06
240FHyver (42留言): 這貓好可愛,隨時哀怨 04/25 14:13
241FL1ON (174留言): 給力早安 ㄈ仔我記得愛玉好像也是有錢人ㄋ 04/25 14:13
242Ffantasibear (103留言): 昨夜下了雨好舒服,我竟然睡到現在 04/25 14:16
243Ffantasibear (103留言): 這陣子睡眠實在太差太差了 04/25 14:16
245FL1ON (174留言): 幻熊睡好晚 我要來去 跑步惹。 04/25 14:19
246FL1ON (174留言): 上班上到一半可以跑步 我覺得我也滿屌的 04/25 14:20
247FL1ON (174留言): 約克羊你可以發 你敢在__做什麼之類的廢文 04/25 14:21
248Ffantasibear (103留言): 我幾乎睡11小時,超屌 04/25 14:22
250Ffantasibear (103留言): 以後貓咪只准拍苦臉,這才是最美的 04/25 14:34
251Ffantasibear (103留言): 說到夢,我每天都去一個地方玩ㄟ 剛才在布拉格 04/25 14:38
253Fxjp004123 (37留言): 苦臉是什麼 04/25 14:50
255FYU0121 (48留言): 山豬 04/25 14:51
256Fstan1231 (105留言): ㄆ玉 04/25 14:53
257Fstan1231 (105留言): ㄆ玉選版主 我贊助500p 04/25 14:54
258FYU0121 (48留言): 我要當站長 04/25 14:55
259Fstan1231 (105留言): 好罩我 04/25 14:59
260Fa98450333 (29留言): 你這老屁股 滾吧 04/25 15:01
261FL1ON (174留言): ㄆ玉要參選ㄇ 04/25 15:01
262Fstan1231 (105留言): 過氣板豬ㄈ仔怒嗆過氣板豬ㄆ玉 04/25 15:02
263Ffantasibear (103留言): 苦臉就是憂鬱多愁善感的臉~~ 04/25 15:09
264FL1ON (174留言): 肥宅相輕 04/25 15:09
265Ffantasibear (103留言): 史丹的橘橘欠三杯 04/25 15:09
266FYU0121 (48留言): 老ㄈ呢 04/25 15:30
267Fdan5120 (98留言): 靠杯 閃掉八卦板的 棒球板就被雷到 幹幹幹 04/25 15:53
269FL1ON (174留言): xjp 晚安 我玩爽惹 睡一下 04/25 16:04
270Ffantasibear (103留言): 晚安安安安 04/25 16:07
271FL1ON (174留言): 阿 丹丹,我有爆雷,不要看我的文,也不要看棒球版索爾那篇 04/25 16:13
272FL1ON (174留言): 對不起QQ 04/25 16:13
273Fdan5120 (98留言): 幹 就那篇r 04/25 16:16
274FL1ON (174留言): QQ 對不起 04/25 16:18
275Fdan5120 (98留言): 所以說索爾和浩克真的QQ了嗎 04/25 16:19
276FL1ON (174留言): 阿災 我也是聽ㄉ 晚安 04/25 16:21
277FL1ON (174留言): 應該沒吧 ps4遊戲還在賣呢(? 04/25 16:21
278Fwryi1205 (41留言): 幹 04/25 16:55
279Fkiminocodo (19留言): 我愛你 嗚嘻 嘻嗚 04/25 17:23
280Fwryi1205 (41留言): 母湯 04/25 17:27
281FGalLe5566 (122留言): 好 這個可以有 04/25 17:31
282Fasiasssh (45留言): https://i.imgur.com/UYhvHFr.jpg 壓力山大 04/25 17:34
283FGalLe5566 (122留言): 這種機械式的動作 你寫一個小精靈來幫你刷不就好了... 04/25 17:35
284Fasiasssh (45留言): https://i.imgur.com/kfJJ2UU.jpg 目前練這幾隻 加油 04/25 17:35
285Fasiasssh (45留言): 手動練的才有感情 04/25 17:36
286FGalLe5566 (122留言): 好吧 04/25 17:36
287Fa98450333 (29留言): 安安 04/25 18:08
288Fwryi1205 (41留言): 熱 04/25 18:17
289Fstan1231 (105留言): 肥物給麗菜 04/25 18:28
290FBenbenyale (40留言): 身無可戀 04/25 18:31
291FGalLe5566 (122留言): 朕在 如何? 04/25 18:42
292FYU0121 (48留言): 黃ㄈ剛剛私訊我說他確認已經安裝adsl了 04/25 18:49
293FGalLe5566 (122留言): 原來如此 嫖太大了 04/25 18:50
294Fxyz4594 (18留言): 黃ㄈ,不要用台灣健保拿藥,你是中國人 04/25 19:14
295Fstan1231 (105留言): 給麗菜ㄋ 04/25 19:16
296Fxyz4594 (18留言): 給力哥剛剛被我幹到哭出來,現在在洗澡 04/25 19:22
297Fasiasssh (45留言): 問一下 大明狐跟月明狐那個好用啊 04/25 19:32
298Fasiasssh (45留言): 還是小黑配明狐比較好 04/25 19:33
299Fwryi1205 (41留言): 把遊戲砍掉比較好 04/25 19:37

推薦文章

300Fa98450333 (29留言): 靠北喔 你也是中國人啊 你不支持92狗屎嗎? 04/25 19:59
301Fstan1231 (105留言): 弓明湖比較好用 04/25 19:59
302FBenbenyale (40留言): 黃ㄈ回台灣投淫文 支持九二統一 04/25 20:03
303Fxyz4594 (18留言): 黃ㄈ,多罵點,你好久沒罵我了 04/25 20:05
304Fwryi1205 (41留言): 幹 04/25 20:13
305FBenbenyale (40留言): 我幫黃ㄈ打 04/25 20:15
306FYU0121 (48留言): 山豬ㄈ呢 04/25 20:18
307FSkydier (44留言): 幹你老師京都10月開始收住宿稅 04/25 20:33
308FMews (32留言): 不爽去墾丁啊 04/25 20:49
309FGalLe5566 (122留言): 可是你不去墾丁就沒人買玉米了 04/25 20:51
310FSkydier (44留言): 我來恆春第4天了 只在那邊待2小時 04/25 20:51
311FSkydier (44留言): 真他媽人有夠多又髒又亂 04/25 20:51
312FGalLe5566 (122留言): 你為什麼到處跑QQ 04/25 20:51
313FSkydier (44留言): 哪裡有網路線和浴室 哪裡就是家 04/25 20:54
314FGalLe5566 (122留言): 我,就是網路線 04/25 20:57
315FSkydier (44留言): == 04/25 21:00
316Fgod060119 (17留言): 不行 我覺得太快把運氣消費完了 04/25 21:01
317Fasd159g: 求上車 04/25 21:02
318FGalLe5566 (122留言): 還好 我無課就抽到二號機了 04/25 21:02
319FMews (32留言): 宅利不意外 04/25 21:07
320FBenbenyale (40留言): sky哥哥幫我定義家了 就是網路電腦以及浴室ㄟ 04/25 21:20
322Fwryi1205 (41留言): 04/25 21:44
323FGalLe5566 (122留言): 這個可以有 這眼睛很漂亮 04/25 21:49
324Fwryi1205 (41留言): 求下車 04/25 21:51
325Fmeowchen (18留言): 累 04/25 21:53
326Fstan1231 (105留言): 給麗菜 04/25 22:18
327FGalLe5566 (122留言): 嗨史坦 04/25 22:20
328Ffantasibear (103留言): 喵~~~~~~~~~~~~ 04/25 22:23
329FBenbenyale (40留言): 拔河囉 04/25 22:26
330Fwryi1205 (41留言): 我快熱死ㄌ 04/25 22:30
331FMews (32留言): 脫吧 記得拍照上傳 04/25 22:35
332Fstan1231 (105留言): 給力肥ㄋ 04/25 22:37
333Fcynthia0620 (46留言): 不會用電腦貼圖:(((((((((發了文被笑了 04/25 22:41
334Fcynthia0620 (46留言): 我再也不用電腦貼圖惹 04/25 22:42
335FMews (32留言): 誰笑你 我幫你笑回去 04/25 22:42
336Fcynthia0620 (46留言): 嗚嗚嗚我刪掉了 04/25 22:43
337Fcynthia0620 (46留言): 本來想分享一下我看到笑到快岔氣的翻拍劇 04/25 22:44
338FMews (32留言): 你可以重發 04/25 22:46
339Fcynthia0620 (46留言): 我玻璃心啦不想發了,繼續看日劇 04/25 22:47
340Fcynthia0620 (46留言): 說真的,好想改掉玻璃心的懷習慣喔 04/25 22:50
341Fcynthia0620 (46留言): 沒膽又玻璃心又愛耍邊緣,沒救了 04/25 22:50
342Finvidia (28留言): 先練習發姆咪文 04/25 22:53
343Fcynthia0620 (46留言): 不要姆咪 04/25 22:54
344Fyorkyoung (52留言): 先練習發約克文 04/25 22:54
345Fwryi1205 (41留言): ? 04/25 22:55
346Fcynthia0620 (46留言): 也不要約跑文 04/25 22:55
347Finvidia (28留言): 那約克姆咪文 04/25 22:57
348Fyorkyoung (52留言): :( 04/25 22:57
349Fmeowchen (18留言): 那約克女僕文 04/25 22:58
350Fcynthia0620 (46留言): 那你發給我看:) 04/25 22:58
351Fcynthia0620 (46留言): 阿對了,要來看jojo了 04/25 22:59
352FYU0121 (48留言): https://i.imgur.com/ODHLerQ.jpg 菌友拉屎 04/25 23:05
353Fyorkyoung (52留言): ^0^ 04/25 23:10
354Fxyz4594 (18留言): 我勃起了 04/25 23:11
355FYU0121 (48留言): 黃ㄈ用adsl舌頭幫你吸 04/25 23:15
356FGalLe5566 (122留言): 他的臉真的好苦 04/25 23:17
358Fxyz4594 (18留言): 沒關係,口交感染機率很低 04/25 23:20
359FGalLe5566 (122留言): 冏臉貓 04/25 23:21
360Fpengjoker (6留言): 好餓 04/25 23:25
361Fcynthia0620 (46留言): 他的臉好可愛 04/25 23:25
362Fyorkyoung (52留言): 去吃消夜 04/25 23:25
363Fyorkyoung (52留言): 宵夜 04/25 23:25
364Fstan1231 (105留言): 給粒廢 04/25 23:30
365Fstan1231 (105留言): 夜市烤玉米超貴!一支等同便當價 廢物玉米哥一支500圓 04/25 23:31
366FL1ON (174留言): 我 就是宵夜 04/25 23:33
367FYU0121 (48留言): 宵ㄈ呢 04/25 23:57
368Fxyz4594 (18留言): 我想無套做 04/26 00:00
369Ffantasibear (103留言): 累死了,我脖子快斷了 04/26 00:08
370Fcynthia0620 (46留言): 動一動 04/26 01:08
371FL1ON (174留言): 這兩天一直拉肚子 04/26 01:25
372Ffantasibear (103留言): 拉肚子大概是天氣變化 04/26 01:43
373Ffantasibear (103留言): 我今天也拉 04/26 01:44
374Fcynthia0620 (46留言): 一喝奶茶必拉肚子,不喝就便秘 04/26 01:51
375Fdan5120 (98留言): 看完午夜場 可以放心上ptt了 04/26 01:51
376Fcynthia0620 (46留言): 我都差不多被劇透完了 04/26 01:52
377Fdan5120 (98留言): 死的都是意想不到的 上面都假雷 04/26 01:52
378FBenbenyale (40留言): 又是睡不著的一天 04/26 01:53
379Fdan5120 (98留言): 不錯看 看之前很睏但看完全場沒冷場 04/26 01:53
380Fcynthia0620 (46留言): 好,我今天晚上去看 04/26 01:54
381Fcynthia0620 (46留言): 趕快睡著吧 04/26 01:55
382Fdan5120 (98留言): 考完ㄌ喔 04/26 01:56
383Fcynthia0620 (46留言): 考完了 04/26 01:56
384Fcynthia0620 (46留言): 壞狗狗是什麼時候出來的梗啊 04/26 01:57
385FL1ON (174留言): 去ㄅ 我在等爆雷文欸 04/26 01:57
386Fdan5120 (98留言): 壞狗喔 反派那邊的嘍嘍吧 04/26 02:12
387Fdan5120 (98留言): 看錯== 04/26 02:12
389Fdan5120 (98留言): 肥物 04/26 02:17
390Fcynthia0620 (46留言): 誰是真正的壞狗狗 04/26 02:17
391FGalLe5566 (122留言): 可以 這個可以有 貓胸肉 04/26 02:21
392Fyorkyoung (52留言): 壞貓貓 04/26 02:38
393Ffantasibear (103留言): 史丹貓ㄎㄧㄤ掉了......... 04/26 02:46
394Fgod060119 (17留言): 可惡 好可愛 04/26 03:58
395Finvidia (28留言): 姆咪 O_O 04/26 06:17
396Fiovoecu (10留言): 不准ㄎㄧㄤ 04/26 06:20
397Fawfulday (8留言): 還有21天才能在nba板講話,唉菜逼八QQ 04/26 06:58
398Fawfulday (8留言): 對了,今天真是早安 04/26 06:58

推薦文章

400FHyver (42留言): 凹凹凹凹凹凹凹凹凹凹 04/26 08:20
401FHyver (42留言): 凸凸凸凸凸凸凸凸 04/26 08:21
403Fxjp004123 (37留言): 熟女與妹妹的腳 04/26 09:01
404Fxjp004123 (37留言): 話說最近一直把自己包得很緊,跟伊斯蘭婦女一樣,最好 04/26 09:02
405Fxjp004123 (37留言): 大家都不要看到我,還戴著手套 04/26 09:02
406Fxjp004123 (37留言): 最好大家都忽略我 04/26 09:03
407FL1ON (174留言): 喂 高雄那麼熱,你是想中暑膩? 04/26 09:05
408FL1ON (174留言): 還有,你是男孩紙,包的跟女森一樣幹嘛 04/26 09:05
409FL1ON (174留言): 糟糕天 海爾 xjp 早安 04/26 09:05
410FMews (32留言): 所以你就是熟女 04/26 09:19
411Fmeowchen (18留言): 早晨喵 04/26 09:20
412FMews (32留言): 誰可以爆一下復仇者3的雷在這裡 04/26 09:21
413Fwryi1205 (41留言): 熱 04/26 09:27
414Fawfulday (8留言): 艾斯死了!!慟 04/26 09:56
415Fawfulday (8留言): 我雷完了 04/26 09:57
417Fasiasssh (45留言): 為什麼一堆人看到雷就要7pupu 莫名奇妙 04/26 10:20
418Fmeowchen (18留言): 人人都4潛水艇 被爆雷攻擊衣服會大破 穿死庫水很不方便 04/26 10:25
419FL1ON (174留言): 哇靠 我詹carry全場 絕殺三分 幹! 04/26 10:46
420FL1ON (174留言): 海鳥 喵陳 宅亞 ryi1205 I早安 04/26 10:47
421FL1ON (174留言): 史丹早 04/26 10:47
422Ffantasibear (103留言): 大家早安! 連續夢,在東歐玩差點搭到去莫斯科的車 04/26 11:04
423Fxjp004123 (37留言): 材質很涼很舒服,話說熟女是以下圖片 04/26 11:09
424Fxjp004123 (37留言): https://i.imgur.com/mmDHzhc.jpg 左邊貓媽媽 04/26 11:10
425Fxjp004123 (37留言): 包起來大家才看不到我,我只想給女友看到我的肌膚 04/26 11:10
426Ffantasibear (103留言): 媽媽又懷孕了!? 04/26 11:12
427Ffantasibear (103留言): 有地震=_= 04/26 11:13
428Ffantasibear (103留言): 但感覺是從南邊傳來的 04/26 11:14
429Fcynthia0620 (46留言): 哪裡有地震 04/26 11:18
430FMews (32留言): 我的心 04/26 11:19
431Fyorkyoung (52留言): 因為你而產生地震 04/26 11:21
432Frainxo6p: 有地震沒錯...只是沒人發 04/26 11:32
433Fxyz4594 (18留言): 想被黃ㄈ用觀音坐蓮搖到射 04/26 11:40
435Fxjp004123 (37留言): 沒啊熟女只是很胖 04/26 12:37
436Fyorkyoung (52留言): 有誰出來打球的 04/26 13:25
437Fdan5120 (98留言): 變冷了打什麼球喇 04/26 13:33
438Fcynthia0620 (46留言): 我只是要噓88而已為什麼給我寄連結了 04/26 13:40
439Fdan5120 (98留言): 哪篇 好康的嗎 04/26 13:45
440Fcynthia0620 (46留言): 對我來說不是 04/26 13:48
441Fwryi1205 (41留言): 熱 04/26 13:58
442FMews (32留言): 宅利呢 給我出來 04/26 14:07
443FGalLe5566 (122留言): 怎麼? 04/26 14:26
444Fa98450333 (29留言): 喔 04/26 14:44
445FL1ON (174留言): 幻熊 辛西亞 約克羊 雨XO 玉米哥 丹丹 給力 黃ㄈ 早安 04/26 14:47
446FL1ON (174留言): xjp你還好嗎?〉 04/26 14:56
447Fprog: 宅鳥快去工作 04/26 15:07
448FL1ON (174留言): prog帥哥又提醒宅鳥不要宅ㄌ 04/26 15:38
449FL1ON (174留言): 晚安 休息一下 04/26 15:38
450Fbadbadook (6留言): 約 泡 ? 04/26 15:39
451Fprog: 當然我是為他好 04/26 15:51
452FMews (32留言): 尼特族少在那邊裝好人 先為了你爸媽好吧 04/26 15:52
453Ffantasibear (103留言): 不要起蒸液 https://i.imgur.com/ynylce8.jpg 04/26 15:58
454Fwryi1205 (41留言): 04/26 16:18
455Fdan5120 (98留言): 肛 04/26 16:19
456FBenbenyale (40留言): J. Buckley - Last Goodbye 04/26 17:13
457Fpengjoker (6留言): 給莉呢 04/26 17:50
458Ffantasibear (103留言): 給莉在山崖下 04/26 17:53
459Fwryi1205 (41留言): 04/26 18:19
460FGalLe5566 (122留言): 我不在這裡,我所在之處,乃是理想與幻想的終結。 04/26 18:20
461FYU0121 (48留言): https://i.imgur.com/yd6MghV.jpg 菌友罰站 04/26 18:21
462FGalLe5566 (122留言): 苦臉貓 04/26 18:23
463FGalLe5566 (122留言): 見鬼了 高文為什麼這麼強 04/26 18:35
464Fabcstandup: 軍蘭州拉麵 04/26 18:41
465Ffantasibear (103留言): 阿苦該理毛了~~ 04/26 18:48
466FHyver (42留言): https://goo.gl/eTuNMP 5j/ 中間表示 無奈 04/26 18:59
467FHyver (42留言): 苦臉貓咪好可愛 04/26 19:00
468Fdan5120 (98留言): 貓 04/26 19:07
469FYU0121 (48留言): https://i.imgur.com/nvL5Wus.jpg 菌友洗澡 04/26 19:14
470Ffantasibear (103留言): 刺蝟。ㄏㄏ 04/26 19:16
471Fdan5120 (98留言): 貓好像有點年紀了 04/26 19:17
472FYU0121 (48留言): 他不是貓 他是狗 04/26 19:43
473Ffantasibear (103留言): 有夠乖~~ 04/26 19:44
474FHyver (42留言): 為什麼是狗? 04/26 19:51
475FBenbenyale (40留言): 菌友毛 04/26 19:54
476Finvidia (28留言): 因為菌友阿 04/26 19:54
477FYU0121 (48留言): 長這樣你跟我說他是貓 該去看動物百科全書了 04/26 19:57
478Fwryi1205 (41留言): 04/26 19:57
479FSkydier (44留言): 紅ㄈ密我說那隻是狗 04/26 20:06
480FHyver (42留言): 好! 他是狗,我太笨惹對不起 04/26 20:12
481Fcynthia0620 (46留言): 好,我看完了 04/26 20:14
482FHyver (42留言): 樓上看復仇者3嘔 04/26 20:14
483Fwryi1205 (41留言): 04/26 20:55
484Fdan5120 (98留言): 天R 樂事的炙烤番茄好好ㄘ喔 04/26 21:28
485Fcynthia0620 (46留言): 好險我有做好心裡準備 04/26 21:36
486Fdan5120 (98留言): 好險啥 04/26 21:37
487FBenbenyale (40留言): 你知道嗎 貓耳內耳也有長毛突出來 04/26 21:46
488Fcynthia0620 (46留言): 我沒有雷別人的興趣啦 04/26 21:47
489FGalLe5566 (122留言): 我比較喜歡無毛的 04/26 21:50
491Finvidia (28留言): 這張不4貼過ㄌ? 04/26 22:04
492Fdan5120 (98留言): 所以妹子去看了ㄛ 04/26 22:05
493Ffantasibear (103留言): 給莉要的無毛啊 04/26 22:05
495FGalLe5566 (122留言): 他長得好奇怪... 04/26 22:10
496FGalLe5566 (122留言): 肥的我可以 這坨肥到連脖子都消失了欸... 04/26 22:11
497Fgod060119 (17留言): 蟻人死了!!! 04/26 22:17
499Fgod060119 (17留言): 金鋼狼也死了 不過彩蛋有蝙蝠俠 看來是下一集的英雄 04/26 22:23

推薦文章

500FGalLe5566 (122留言): 澄澄 你這樣姆湯 04/26 22:25
501Fdan5120 (98留言): 大班蝙蝠俠超糞 看不到諾蘭三部曲車尾燈 04/26 22:25
502Finvidia (28留言): 被雷ㄉ不就省下電影票錢了ㄇ 04/26 22:26
503Fpengjoker (6留言): https://i.imgur.com/YcORhYb.jpg 04/26 22:29
504FGalLe5566 (122留言): 這不是貓 04/26 22:30
505Fgod060119 (17留言): 換個角度想 大家會想進去電影院看金鋼狼怎麼死的啊 04/26 22:31
506Fstan1231 (105留言): 給粒廢 04/26 22:32
507FGalLe5566 (122留言): 嗨是淡 04/26 22:33
508Fstan1231 (105留言): 第六章打玩了沒 04/26 22:34
509FGalLe5566 (122留言): 正在嚕 第九章了 有夠啊砸的 04/26 22:34
510Fwryi1205 (41留言): 噁 04/26 22:35
511FGalLe5566 (122留言): 你打完了喔? 04/26 22:35
512Fgod060119 (17留言): 恩 用了三張衛生紙 04/26 22:39
513FGalLe5566 (122留言): 原來如此 04/26 22:39
514Fgod060119 (17留言): 有沒有開VPN跳到歐洲就很容易抽到5星的八卦? 04/26 22:41
515FGalLe5566 (122留言): 沒有 我無課就抽到兩隻超激EVA貓 04/26 22:46
516Fstan1231 (105留言): 廢物 04/26 22:46
517Fstan1231 (105留言): 我打到第三張 04/26 22:47
518FGalLe5566 (122留言): 原來如此 04/26 22:48
519FQBian: 想被姆咪用繩子綑綁 04/26 23:01
520Fkyozwhie: 有幻覺嗎? 04/26 23:02
521FBenbenyale (40留言): 原來如此 可是我還不會束縛術 04/26 23:06
522FYU0121 (48留言): 菌友呢 04/26 23:10
523FWhitedew: 各位晚安 04/26 23:20
524Fmeowchen (18留言): 晚安 04/26 23:22
525Fxyz4594 (18留言): 我 04/26 23:41
526Fxyz4594 (18留言): 是 04/26 23:41
527Fxyz4594 (18留言): 一 04/26 23:41
528Fxyz4594 (18留言): 個 04/26 23:41
529Fxyz4594 (18留言): 帥 04/26 23:42
530Fxyz4594 (18留言): 哥 04/26 23:42
531FYU0121 (48留言): 吉 04/26 23:44
532FYU0121 (48留言): 拉 04/26 23:44
533Fcoon182: 屎 04/26 23:49
534FYU0121 (48留言): 君 04/26 23:51
535FP2P (12留言): ====================斷=========================== 04/26 23:53
536FQBian: 姆咪可愛 04/27 00:38
537FGalLe5566 (122留言): 誰跟你老人臭= = 04/27 00:44
538FSkydier (44留言): (捏鼻) 04/27 00:45
539FGalLe5566 (122留言): 你在那邊裝可愛嘔嘔嘔嘔 04/27 00:47
540Fstan1231 (105留言): 給麗菜 04/27 00:49
541FGalLe5566 (122留言): ? 04/27 00:50
542FP2P (12留言): 請問筆電有耐重限制嗎 上面躺著一隻5kg的貓 請問單兵如何處置 04/27 00:53
543FGalLe5566 (122留言): 理論上來說 只要外殼沒被壓到變型就沒差 還有圖呢 04/27 00:54
544Fdan5120 (98留言): 有貓毛 都死得很快啦 04/27 00:56
545FP2P (12留言): https://i.imgur.com/ZKjXKhR.jpg 04/27 00:59
546Fstan1231 (105留言): 給麗菜 04/27 00:59
547FGalLe5566 (122留言): 好 可以 這個可以有 這種的我喜歡 04/27 01:00
548FGalLe5566 (122留言): 這種毛色超漂亮的 04/27 01:00
549FGalLe5566 (122留言): 史丹怎麼? 04/27 01:00
550FP2P (12留言): https://i.imgur.com/5aZV4uW.jpg 04/27 01:02
551FGalLe5566 (122留言): 好 這個臉型也很漂亮 而且還有白襪子 04/27 01:02
552FMews (32留言): 宅利你是不適想舔 04/27 01:11
553FGalLe5566 (122留言): = = 04/27 01:12
554FGalLe5566 (122留言): 妳不會覺得看起來很好舔嗎...毛茸茸的欸... 04/27 01:12
555FMews (32留言): 宅利不意外 04/27 01:19
556Fpengjoker (6留言): 噁 04/27 01:29
557FL1ON (174留言): 我家以前的美短也很愛躺筆電 04/27 01:34
559FGalLe5566 (122留言): 這是狗 04/27 01:43
561FP2P (12留言): 好爽噢 六抽中莫比+哈渤 04/27 02:20
562Ffantasibear (103留言): 我家這個月爆炸了幹!白癡家人 04/27 03:36
563Fdan5120 (98留言): 老杯嗎 04/27 03:56
564Ffantasibear (103留言): 我老杯已經死13年了 04/27 04:00
565FL1ON (174留言): 頭好痛 04/27 04:36
566Fgod060119 (17留言): 真的好可愛 我快要 把持不住了 04/27 05:25
567Fiovoecu (10留言): 不准忍不住 04/27 06:19
568Finvidia (28留言): 今天終於沒有提早醒來惹 口米女母 04/27 06:36
569FL1ON (174留言): 澄澄 iou 顯卡 姆咪姆咪 04/27 06:52
570FHyver (42留言): 早安,有人看得懂日文嗎?丟狗狗翻譯還是看不懂.. 04/27 07:27
571FHyver (42留言): フォロー解除します悪しからず ←跪求日文高手,謝謝 04/27 07:38
572FL1ON (174留言): 先解除鎖定,再按熱開水 04/27 07:40
574FSkydier (44留言): 解除追隨不要見怪 04/27 08:09
575FGalLe5566 (122留言): 可我會見怪 04/27 08:11
576FGalLe5566 (122留言): 我,就是怪 04/27 08:11
577Fwryi1205 (41留言): 幹 04/27 08:11
578FSkydier (44留言): 一大早是在公沙小 04/27 08:12
579FGalLe5566 (122留言): 早啊 04/27 08:12
580FSkydier (44留言): 你好 04/27 08:14
581FHyver (42留言): 謝謝史蓋 04/27 08:16
582Fdtlove17: 廢物刪文刪那麼快 04/27 08:23
583Fwryi1205 (41留言): 垃圾遊戲 04/27 08:24
584FWhitedew: 早Y 04/27 08:38
585FL1ON (174留言): 海爾 天哥 給力 ryi1205 白白 早安 04/27 09:32
586FL1ON (174留言): https://i.imgur.com/MoeoSt7.jpg 姆咪姆咪 04/27 09:34
587FL1ON (174留言): dt愛早安 04/27 09:34
588Fcynthia0620 (46留言): 好爽,體育課放三個禮拜 04/27 09:48
589Fcynthia0620 (46留言): 我可以三個禮拜只上四天課了嘻嘻 04/27 09:49
590Fmeowchen (18留言): 早晨喵 04/27 09:59
591FMews (32留言): 乾脆都不要去吧 暑假開始了 04/27 10:01
592FL1ON (174留言): 辛西亞 喵陳 宅鳥早。辛西亞,男孩紙要多運動啊 04/27 10:04
593Ffantasibear (103留言): 睡不好:( 夢裡都在發脾氣...... 04/27 10:20
594Ffantasibear (103留言): 不過今晚我去沖繩玩 04/27 10:21
595FL1ON (174留言): 好 04/27 10:37
596FL1ON (174留言): 早安 04/27 10:37
597Ffantasibear (103留言): 夢醒了,已經回台灣 04/27 10:51
598Ffantasibear (103留言): 早安獅子,還沒睡呀? 04/27 10:51

推薦文章

600FL1ON (174留言): 上班 忙欸 04/27 11:38
601Fdan5120 (98留言): 肛 04/27 11:59
602Fgod060119 (17留言): 羅馬槍騎兵 04/27 12:01
603FMews (32留言): 宅利勒 04/27 12:24
604Fstan1231 (105留言): 吃屎 04/27 12:25
606Fasiasssh (45留言): ㄌㄌㄎ 04/27 12:34
608FBenbenyale (40留言): 莫西干貓 04/27 12:48
609Fyorkyoung (52留言): 早安 04/27 13:32
610Fdan5120 (98留言): 羊仔打球 04/27 13:37
611Fyorkyoung (52留言): 羊羊不喜歡打球:( 04/27 13:41
612Fyorkyoung (52留言): 辛西亞比較喜歡 04/27 13:41
613Fiovoecu (10留言): 不准不喜歡 04/27 13:51
614Ffantasibear (103留言): 地震好大...... 04/27 13:56
615FL1ON (174留言): 推 yorkyoung: 五樓會炸自己懶叫 04/27 14:23
616Fyorkyoung (52留言): :( 04/27 15:15
617FL1ON (174留言): 睡一下 04/27 15:31
618FL1ON (174留言): 斑斑 宅亞 早安 04/27 15:31
619FL1ON (174留言): 丹丹 澄澄 早安 04/27 15:32
620FL1ON (174留言): 史丹早安。你的貓呢?xjp和他的貓呢 04/27 15:32
621FL1ON (174留言): 辛西亞 約克羊來踢球 04/27 15:34
622Fdan5120 (98留言): 阿醬晚安 04/27 16:06
623Fstan1231 (105留言): 廢物 04/27 16:13
624FBenbenyale (40留言): 快速國軍入伍 accelerated National army recruit 04/27 16:43
626Fwryi1205 (41留言): 貓 04/27 16:50
628FHyver (42留言): 靠杯那是狗! 04/27 17:24
631FGalLe5566 (122留言): 沒有藍卡隊嚕50回合嚕不過的關卡 如果有 那就嚕60回合 04/27 18:06
632Fstan1231 (105留言): 給粒廢 嚕三小 04/27 18:09
633Fkiminocodo (19留言): 欸欸欸史丹!罵我廢好不好,拜託~ 04/27 18:10
634FGalLe5566 (122留言): 第六章啊 嚕玩了 剩下自由關卡 04/27 18:10
635Fkiminocodo (19留言): 我想要被你罵>\\\\\< 04/27 18:11
636FGalLe5566 (122留言): 欸 對了 然後啊 我一不小心用呼福單抽白槍... 04/27 18:12
637FGalLe5566 (122留言): 原本想說嚕玩了紀念抽一下 結果就... 04/27 18:12
638Fstan1231 (105留言): 吃屎 你抽不到梅琳了 04/27 18:12
639FGalLe5566 (122留言): 我是覺得蘿莉應該是抽不到了就是... 04/27 18:13
640Fstan1231 (105留言): 你以後抽不到5星了 04/27 18:13
641FGalLe5566 (122留言): 安啦 這是機率學 等我魔法少女被制裁完了就沒事 04/27 18:14
642FGalLe5566 (122留言): 蘿莉大概抽個十抽吧 反正是被制裁用的 04/27 18:16
643FGalLe5566 (122留言): 不過我現在的石頭大概夠抽個30抽左右 04/27 18:17
644Fstan1231 (105留言): 吃屎 沒有100抽都不叫抽 04/27 18:18
645Fpony666: \給力來一單/ 04/27 18:42
646Fkiminocodo (19留言): 幹,都不理我 04/27 18:46
648Fgod060119 (17留言): 明天去抽血 04/27 19:03
649FKay731: 大家想換哪一張ANSI 04/27 19:13
650FHyver (42留言): 三熊圖 04/27 19:18
651Finvidia (28留言): 拉拉熊+姆咪 04/27 20:24
652Fmeowchen (18留言): 赫蘿圖 04/27 20:30
653Fkiminocodo (19留言): 啊啊啊誰來理我一下啦啊啊啊 04/27 20:33
654Fdan5120 (98留言): 肥物 04/27 20:34
655Fdan5120 (98留言): 這樣可以嗎 04/27 20:35
656Fcynthia0620 (46留言): 破產了,可是好開心 04/27 20:47
657Fcynthia0620 (46留言): 聯名商品真的很吸引人 04/27 20:47
658Fdan5120 (98留言): 潮牌喔 04/27 20:57
659Fcynthia0620 (46留言): uniqlo的jump!跟漫威聯名啊 04/27 21:00
660Fdan5120 (98留言): 真ㄉ假ㄉ 好像很潮 04/27 21:02
661Fdan5120 (98留言): 只有看到jump的r 沒漫威ㄉ 04/27 21:05
662Fbadbadook (6留言): 還 蠻 屌 的 04/27 21:14
663Ffantasibear (103留言): 剩三個月我要宣告破產了,趕緊趕稿 QQ 04/27 21:33
664Ffantasibear (103留言): 剛才買了筆電 04/27 21:33
665Fredtail0406: 欸欸欸 我剛剛手機剩五趴充電 直接跳68 這是怎樣 04/27 21:40
666Fredtail0406: 我有先關機 04/27 21:40
667Fdan5120 (98留言): 電池壞了 幫QQ 04/27 21:41
668Fredtail0406: 可是平常不會突然掉電ㄛ 可以用很久 04/27 21:44
669Fdan5120 (98留言): HTㄈㄇ 04/27 21:46
670Fkiminocodo (19留言): 哼 04/27 21:46
671FBenbenyale (40留言): 我其中一隻手機壞了 我把他原廠了 04/27 21:51
672Fredtail0406: 三星 j7還z7的樣子 04/27 21:52
673Fdan5120 (98留言): 那要爆炸了 幫QQ 04/27 21:53
674FHyver (42留言): 小傑T超好看 04/27 22:48
675Fcynthia0620 (46留言): 去的時候沒有看到qq 04/27 23:03
676Fdan5120 (98留言): 狗和大隻海蟑螂 04/27 23:06
678Fkiminocodo (19留言): 晚安 我要睡覺惹 04/27 23:16
679FL1ON (174留言): 晚安 04/27 23:37
※ 編輯: Kay731 (36.231.86.91), 04/28/2018 00:27:24
680Fazytjr: 綠共,加油好嗎? 04/28 00:37
681FMews (32留言): 剛剛發現我之前的文章底下有瑪莎推文欸 賺到了 04/28 02:34
682FGalLe5566 (122留言): 真假? 04/28 02:41
683FMews (32留言): 自己去尋找吧 我的文章沒很多 04/28 02:47
684FGalLe5566 (122留言): 明明就幾百篇 04/28 02:50
685FGalLe5566 (122留言): 找不到 算了 然後你家的裝潢看起來有夠貴 好野鳥 04/28 02:52
686FMews (32留言): 那其實是你家 04/28 02:56
687Ffantasibear (103留言): 午夜前在海邊散步講電話到現在 04/28 03:02
688FGalLe5566 (122留言): 你電話費會爆 04/28 03:03
689FMews (32留言): 跟宅利的肝一樣 04/28 03:04
690FGalLe5566 (122留言): 已經炸過了 04/28 03:07
691FMews (32留言): 豬肝麵 04/28 03:07
692FGalLe5566 (122留言): 不行 只有豬肝的豬肝麵我不接受 04/28 03:08
693FMews (32留言): 那豬肝粥 04/28 03:08
694FGalLe5566 (122留言): 什錦麵裡面有豬肝可以 可是整個都是豬肝就很噁 04/28 03:09
695Ffantasibear (103留言): 用臉書聊天啦 04/28 03:09
696FGalLe5566 (122留言): 那個普林高到爆吧 有痛風的人吃了應該會崩潰 我猜 04/28 03:09
697FMews (32留言): 肥宅挑什麼食 滾去吃麥當勞 04/28 03:10
698Ffantasibear (103留言): 四月30,我們這廟會,打算開直播 04/28 03:10
699FGalLe5566 (122留言): 不行 現在三點 牛肉跟炸物全收了 現在只有難吃的 04/28 03:10

推薦文章

700FMews (32留言): 吃店員啊 04/28 03:12
701FGalLe5566 (122留言): 啊對 說到這個 我這最近來了兩個很正的店員 04/28 03:14
702FMews (32留言): 圖哩 04/28 03:14
703FGalLe5566 (122留言): 一個超高 只比我矮一點而已 04/28 03:14
704Ffantasibear (103留言): 腿廢了我......... 走三個小時 04/28 03:29
705FL1ON (174留言): 店員圖 04/28 03:29
706FL1ON (174留言): 走三小時還好ㄅ。 04/28 03:30
707FL1ON (174留言): 貼酸痛藥膏啊 04/28 03:30
708FL1ON (174留言): 是說 今天我發現,我老闆看我的發文科科笑,怕 04/28 03:31
709Ffantasibear (103留言): 是還好啦,只是穿拖鞋走,痠的地方怪怪的 04/28 03:46
710Ffantasibear (103留言): 睡一覺就好了,我要多散步排便才通暢 04/28 03:47
711Ffantasibear (103留言): 好久沒在老家附近走那麼久了,除了小時候以外 04/28 03:49
712Ffantasibear (103留言): 獅子的老闆看ptt? 04/28 03:50
713Fdan5120 (98留言): 有gg蟹可以抓嗎 04/28 03:50
714FL1ON (174留言): 他有用啊,我今天上班時瞄到時抖了一下。以後還是發些不正經 04/28 03:54
715FL1ON (174留言): 的好了 04/28 03:55
716Fdan5120 (98留言): 為什麼他有你的id 04/28 03:55
717FL1ON (174留言): 他沒有我ID,但他會逛八卦耶 亂翻文 04/28 03:59
718Ffantasibear (103留言): 你就跟他說我的id就是你啊 04/28 04:07
720Fxjp004123 (37留言): 早上被發現偷踏踏妹妹 04/28 04:19
721FGalLe5566 (122留言): 早XD 04/28 04:24
722FL1ON (174留言): 壞貓 04/28 04:26
723Fxjp004123 (37留言): 早安給力早安輻射 04/28 04:27
724FGalLe5566 (122留言): 你今天真早起 04/28 04:52
725FL1ON (174留言): 給力 粉紅香蓮hen可愛 04/28 05:20
726FGalLe5566 (122留言): 真的 軟綿綿的 04/28 05:24
727FL1ON (174留言): 她敏捷也點的太高 我喜歡耶 04/28 05:29
728FGalLe5566 (122留言): 我還以為你不會喜歡這類型的 04/28 05:31
729FGalLe5566 (122留言): 然後我這廟會又在放鞭炮了 有沒有搞錯... 04/28 05:32
730FL1ON (174留言): 現在覺得不錯。可能現在太累,喜歡這類型,很舒壓 04/28 05:33
731FL1ON (174留言): 欸 也太誇張吧 04/28 05:34
732Fiovoecu (10留言): 不准放鞭炮 04/28 05:56
733Finvidia (28留言): 姆咪 (T_T) 04/28 07:14
734FL1ON (174留言): 姆咪姆咪 04/28 07:51
735FHyver (42留言): 樓下我愛你<3 04/28 07:57
736FL1ON (174留言): 好 04/28 08:12
737FBenbenyale (40留言): The Game 04/28 08:41
738Fsense5566 (5留言): 朵絲呢 04/28 08:57
739Fyorkyoung (52留言): 新年快樂 04/28 09:12
740FBenbenyale (40留言): 賢狼的捏捏 04/28 09:20
741FGalLe5566 (122留言): 早啊 好久不見 然後也太早了 04/28 09:22
742Fsense5566 (5留言): 等車等到想你了 04/28 09:23
743FGalLe5566 (122留言): 我,就是車 04/28 09:24
744FGalLe5566 (122留言): 等等 所以你的車是來了沒啊? 也太久了吧 04/28 09:25
745Fsense5566 (5留言): 沒 平交道事故 等等應該有新聞 04/28 09:27
746Fsense5566 (5留言): 我等快1小時了 04/28 09:27
747FGalLe5566 (122留言): ......你保重 04/28 09:34
748FGalLe5566 (122留言): 所以應該不是你被撞吧? 04/28 09:34
749Fsense5566 (5留言): 不是阿 我的火車跟人互撞 04/28 10:05
750Fdan5120 (98留言): 肛 04/28 10:05
751Fazt911231: https://i.imgur.com/YK3oIGp.jpg 04/28 10:28
752Fcathua: 火車延誤59分鐘會賠償嗎? 04/28 10:29
753Fdan5120 (98留言): 可以退票 04/28 10:32
754Fmeowchen (18留言): 喔喔 赫蘿可愛 <3 04/28 10:52
755Finvidia (28留言): 打X的照片害我想到國王遊戲 04/28 10:56
756Ffantasibear (103留言): 夢到一直吃芒果 04/28 11:07
757FHyver (42留言): 好羨慕,今年芒果會很便宜,如果沒有颱風的話 04/28 11:11
758Ffantasibear (103留言): 13小時來惹~ https://i.imgur.com/C1qKx4a.jpg 04/28 11:21
759Ffantasibear (103留言): 懶得打開...... 再補個眠 04/28 11:23
760Fstan1231 (105留言): 肥物 04/28 12:08
761Fbadbadook (6留言): gay 泡 表示 04/28 12:51
762FYU0121 (48留言): 山豬 04/28 13:18
764FL1ON (174留言): 早 等等出門去shopping 04/28 13:23
765Ffantasibear (103留言): 喵喵喵 04/28 13:26
766FL1ON (174留言): 如果我又失心瘋想買什麼就慘了 不帶卡 帶2萬出門好了 04/28 13:28
767Ffantasibear (103留言): 可惡~~ 04/28 13:33
768Finvidia (28留言): 2萬太多ㄌ吧 帶1000就好 04/28 13:33
769FL1ON (174留言): 但我想買衣服和鞋子...1000就太少惹。我再想想好惹 04/28 13:36
770Ffantasibear (103留言): 刷卡 04/28 13:41
771Fmeowchen (18留言): 我衣服鞋子沒破千過耶... 04/28 13:43
772FL1ON (174留言): 我的尺寸較小,要買女鞋,女版型褲子... 04/28 13:53
773FL1ON (174留言): 然後懶叫超迷你,嘻嘻 04/28 13:58
774Fpotionx: 有...有病屬性同好會.....呃啊 04/28 14:07
775Fyorkyoung (52留言): 送我 04/28 14:12
776Fdan5120 (98留言): 肛門 04/28 14:37
777Ffantasibear (103留言): 吃大便 04/28 14:38
778FL1ON (174留言): 送我的洨 04/28 14:46
779Fcynthia0620 (46留言): 你們好噁 04/28 14:47
780Ffantasibear (103留言): 我幫你跟愛家聯盟檢舉,讓神來教訓他們! 04/28 14:54
781FL1ON (174留言): 置底好髒 04/28 15:13
782Fdan5120 (98留言): 附近美術館公園在辦活動好吵 不過好多蘿莉 04/28 15:24
783Ffantasibear (103留言): 哪個美術館 04/28 15:26
784Fdan5120 (98留言): 台東 04/28 15:27
785Fmeowchen (18留言): 以為是高雄的 04/28 15:31
786Fdan5120 (98留言): 原來4家扶辦的兒童保護日 04/28 15:33
787Ffantasibear (103留言): 那個美術館好多位置可以坐,一定一堆人 04/28 15:36
788Ffantasibear (103留言): 但我還是喜歡海邊,只是再也沒機會去了 04/28 15:36
789FBenbenyale (40留言): 眼睛累了 04/28 15:37
790Fdan5120 (98留言): 台東離海很近阿 04/28 15:37
791FL1ON (174留言): 丹丹休息 台東都是海啊我覺得 04/28 15:41
792Fdan5120 (98留言): 阿醬家扶可以捐ㄇ 04/28 15:48
793FL1ON (174留言): 可以啊 我都去便利商店去機器按捐款的 04/28 16:01
794Fstan1231 (105留言): 肥物們 04/28 16:01
795Ffantasibear (103留言): 筆電登入噓 04/28 16:25
796Ffantasibear (103留言): 晚上要把小筆電和隨身碟的資料傳到大筆電惹~~ 04/28 17:33
797Fdan5120 (98留言): 姐買哪牌的 04/28 17:37
798Fgod060119 (17留言): 以後我都要開vpn玩== 04/28 17:44

推薦文章

800FYU0121 (48留言): 山豬 04/28 18:14
801FL1ON (174留言): 幻熊那台滿便宜的 04/28 18:30
802Ffantasibear (103留言): 是啊~~ 發現特價不少,直接尻下去了 04/28 19:10
803Fwoopoo: 怪聲音,下去冰 04/28 19:11
804Fbadbadook (6留言): 還 蠻 屌 的 04/28 19:22
805Fstan1231 (105留言): 約ㄆ玉 04/28 19:37
806Fa98450333 (29留言): 操 04/28 19:59
807FP2P (12留言): 幹 又被自己帥到 04/28 20:07
808Fmeowchen (18留言): 被自己帥到應該是p2q 04/28 20:14
809Fdavidho: 玩湯姆熊換幾百塊的都是什麼人? 04/28 20:31
810FYU0121 (48留言): 山豚 04/28 20:31
811FBenbenyale (40留言): 千萬母湯將阮放 04/28 20:36
812Fdan5120 (98留言): 樓下是帥哥ㄇ 04/28 20:36
813Fjaychou515: 玩姆咪換幾百塊的都是什麼人? 04/28 20:43
814FHyver (42留言): 一直冒充我金城武名號的都是什麼人 04/28 20:52
815Fstan1231 (105留言): 肥物 04/28 21:42
816Fdan5120 (98留言): 騎4和溜馬該壓誰ㄋ 04/28 21:57
817Fa98450333 (29留言): 喔 04/28 22:11
818Fdan5120 (98留言): ㄈ仔 04/28 22:13
819Fa98450333 (29留言): 安安 04/28 22:18
820Fasiasssh (45留言): 嗚嗚 已經2天沒時間刷絆了 04/28 22:21
821Fstan1231 (105留言): ㄈㄈ仔 04/28 22:22
822FYU0121 (48留言): 茶ㄈ 04/28 22:37
823FBenbenyale (40留言): 黃ㄈ5/1放假 04/28 22:57
824Fasiasssh (45留言): 這次長草只刷了7萬絆 04/28 22:58
825Fa98450333 (29留言): 幹 林北廠務 5/1 10/1 都要工作啦 操 04/28 23:18
826FYU0121 (48留言): 廠ㄈ呢 04/28 23:21
827Fa98450333 (29留言): 你打錯了 ㄏㄈ才對 04/28 23:22
828Finvidia (28留言): 已經排到 10/1 ㄌ!!? 04/28 23:23
829Fasiasssh (45留言): ㄈ仔 來分加班費阿 04/28 23:26
830Fa98450333 (29留言): 你跟我分啊 我責任制是0 你們公司基本上不是不加班? 04/28 23:27
831Fa98450333 (29留言): 還沒 反正每年都這樣 04/28 23:27
832Fasiasssh (45留言): 那算了 04/28 23:27
833Fa98450333 (29留言): 阿不是要分 04/28 23:27
834Fa98450333 (29留言): 還是你去中東的津貼 和我的派駐均分 這樣我肯定賺 04/28 23:28
835Fasiasssh (45留言): 你找個13歲玩cosplay的大奶正妹給我 我就答應 04/28 23:29
836Fstan1231 (105留言): 你們好亂 04/28 23:37
837Fa98450333 (29留言): 我比較想要13歲的貧乳妹妹 04/28 23:38
839FHyver (42留言): just another another o o! another LA devotee 04/29 00:03
840FYU0121 (48留言): 貧ㄈ呢 04/29 00:08
841Fbadbadook (6留言): 還 蠻 屌 的 04/29 00:08
842Fstan1231 (105留言): ㄆ愈什麼時候送我金條 04/29 00:11
843FSkydier (44留言): 今天去墾丁大街看 人mountain人sea啊 04/29 00:13
844FYU0121 (48留言): 黃ㄈ送你 04/29 00:19
845FYU0121 (48留言): 怎沒去大柄烤玉米找玉米歌 04/29 00:19
846FSkydier (44留言): 我根本沒停車下來逛 嘻嘻 04/29 00:22
847FBenbenyale (40留言): 玉米哥貴到我開賓士去買玉米 我穿拖鞋走回家 04/29 00:23
848FL1ON (174留言): 置底真亂 04/29 00:23
849FYU0121 (48留言): 攤位後面是一家賣泰式料理的餐廳 那整棟都他們家的 04/29 00:28
850Fcynthia0620 (46留言): 看不懂你們在工三 04/29 00:37
851Fstan1231 (105留言): 玉米哥一根玉米賣500 看到426加碼到800還排到賣光 04/29 00:43
852FHyver (42留言): 連玉米也BOT 04/29 00:48
853FP2P (12留言): 置底宅宅真的沒救了 04/29 00:54
854Fdan5120 (98留言): 直笛肥宅去有打折嗎 04/29 00:56
855Fstan1231 (105留言): 他會直接關店收攤 04/29 00:57
856FBenbenyale (40留言): FGO有板欸 04/29 01:03
858Fstan1231 (105留言): ㄆ愈 04/29 01:14
859FP2P (12留言): 該不該買PUBG咧 04/29 01:25
860FP2P (12留言): 還是買魔法石卡實在 04/29 01:25
861Fstan1231 (105留言): 前送我比較快 04/29 01:41
863Fstan1231 (105留言): 肥物們 04/29 03:40
864FL1ON (174留言): 換好衣服要出門惹 04/29 03:52
865FL1ON (174留言): 給力 我看了GGO惹 有第四集嗎 QQ 04/29 03:54
866FGalLe5566 (122留言): 熟肉要等白天了 剛才才播完 04/29 04:03
867Fstan1231 (105留言): 給粒廢 04/29 04:12
869FGalLe5566 (122留言): 咦? 動畫風有上喔? 04/29 04:16
870FGalLe5566 (122留言): 我是飛到日本看得 04/29 04:17
871Fstan1231 (105留言): 你沒用 吃扁 04/29 04:18
872Fstan1231 (105留言): 給麗菜出來 04/29 04:30
873Fiovoecu (10留言): 不准去日本 04/29 04:42
874Fcynthia0620 (46留言): 怎麼要五點了 04/29 04:52
875FL1ON (174留言): 好!我來看惹 感謝史丹 辛西亞 iou 史丹 給力 早安,我跑到 04/29 05:14
876FL1ON (174留言): 家惹。 04/29 05:15
877Fstan1231 (105留言): 廢物 04/29 05:21
878FGalLe5566 (122留言): 怎麼惹? 我房間的冷氣好像掛掉了 04/29 05:21
879FL1ON (174留言): 果然好看!給力要記得看動畫風喔 04/29 05:33
880Fstan1231 (105留言): 肥物 04/29 05:49
881FGalLe5566 (122留言): 香蓮軟綿綿的有夠可愛 尤其是最後那個臉 04/29 06:16
882FL1ON (174留言): 超可愛! 04/29 06:27
883FL1ON (174留言): ED唱完還反殺 04/29 06:28
884FGalLe5566 (122留言): 對啊 然後M那個臉也一樣很可愛 04/29 06:29
885Fqoouow: (갨*′●) 04/29 07:17
886Fqoouow: ヾ(。>﹏<。)ノ゙。 04/29 07:17
887FHyver (42留言): 樓上果然翁早安 04/29 07:53
888Fyorkyoung (52留言): 早安 04/29 07:53
889FL1ON (174留言): 果然翁 海耳 約克羊 早安 04/29 07:54
890FL1ON (174留言): 今天又在看棒球 放假下午再出門好了 04/29 07:59
891Fa98450333 (29留言): 早 04/29 08:18
892Finvidia (28留言): 安安 04/29 09:15
893Fpony666: 早! 04/29 09:27
894Ffantasibear (103留言): 溫馨~ 04/29 09:28
895FHyver (42留言): 獅早 04/29 09:32
896FL1ON (174留言): ㄈ仔 小馬 幻熊 早安 我等一下喝個咖啡再去逛街。 04/29 09:50
898FSkydier (44留言): 恆春熱 04/29 10:56
899Fgong0304: 這時代宅宅就是悲哀。只能當綠色工具人 04/29 11:03

推薦文章

900FSkydier (44留言): 陳給z的鼻屎也是綠色的 04/29 11:17
901Ffantasibear (103留言): 恆春是個好地方~~~~ 04/29 11:27
902FSkydier (44留言): 上週雲都超多 不然我腳架都帶來要去龍磐拍星星了 04/29 11:30
903FSkydier (44留言): 希望這周天氣好點 04/29 11:31
904Ffantasibear (103留言): 運氣運氣囉 04/29 11:39
905Fa98450333 (29留言): 最爛夜市票選出爐 都傳開高價嚇死人 04/29 11:49
906Fstan1231 (105留言): ㄈ物 04/29 11:50
907Fa98450333 (29留言): 入口網站蕃薯藤旗下yamNews公布「全台最爛夜市」票選 04/29 11:52
908Fa98450333 (29留言): 結果,墾丁大街奪下第一 04/29 11:52
909Fa98450333 (29留言): 墾丁會黑掉,黑心玉米推了一把 04/29 11:52
910Ffantasibear (103留言): 恆春最有趣的夜市又不在墾丁 04/29 11:58
911FSkydier (44留言): 說到夜市 今天禮拜天恆春也有夜市欸 04/29 11:59
912FSkydier (44留言): 來去買地瓜球 04/29 11:59
913Ffantasibear (103留言): 我吃過最好吃的地瓜球結果是在中原夜市 04/29 12:18
914Fwryi1205 (41留言): 熱 04/29 12:39
915Fdan5120 (98留言): 姆咪姆咪 04/29 12:46
916FBenbenyale (40留言): RIP 04/29 12:57
917FHyver (42留言): 投票的人太少啦! https://i.imgur.com/xze6sLg.jpg 04/29 13:09
918Finvidia (28留言): 花園也上榜了XD 04/29 13:15
919Fstan1231 (105留言): 用我圖有經過同意ㄇ 04/29 13:17
920Fdan5120 (98留言): 寧夏以前還不錯阿 太久沒去了 04/29 13:21
921FHyver (42留言): 這我自己截的圖欸... 04/29 13:31
922FHyver (42留言): 歪一邊那麼醜,不然還你 04/29 13:32
923Fyorkyoung (52留言): 出來打球好嗎 04/29 13:34
924Finvidia (28留言): 約可羊當球~~~ 04/29 13:36
925FSkydier (44留言): 羊睪丸當球 球你帶 04/29 13:37
927Fyorkyoung (52留言): :( 04/29 13:48
929Fasiasssh (45留言): 友情點終於重回100萬了 開心 04/29 13:55
930FL1ON (174留言): 置底PEACE 我還在逛街喔 04/29 14:01
931Fstan1231 (105留言): → yorkyoung: 五樓想要抓蘿莉然後做色色的事 04/29 14:01
932FBenbenyale (40留言): 肚子餓 04/29 14:02
933Ffantasibear (103留言): 獅子有逛到什麼呀? 04/29 14:04
934Ffantasibear (103留言): 我中午做肉燥奶油燉飯,歐伊系~~ 04/29 14:05
935Fdan5120 (98留言): 那什麼鬼 有圖ㄇ 04/29 14:06
936Finvidia (28留言): 已報警 04/29 14:09
938Fxjp004123 (37留言): 約克羊很會喔 04/29 14:12
939FL1ON (174留言): 沒耶 出門走走而已,要坐車回家了 04/29 14:15
940Fyorkyoung (52留言): 你到底是男的還是女的勒 04/29 14:16
941Fyorkyoung (52留言): >_< 04/29 14:16
942FL1ON (174留言): 你問誰? 04/29 14:16
943FL1ON (174留言): 約克羊你留錯篇吼?是不是想汁妹? 04/29 14:17
944Fyorkyoung (52留言): 我問XJP啦 04/29 14:24
945Fyorkyoung (52留言): :( 04/29 14:24
946Faa52189: 跪求乾爹贊助100p 04/29 14:28
947FL1ON (174留言): 我不是說 置底只能有男森嗎?你白問了 04/29 14:29
948Fdan5120 (98留言): 汁妹羊 04/29 14:31
949Fyorkyoung (52留言): 可是他打lol的時候聲音聽起來是女ㄉ啊 04/29 14:34
950FL1ON (174留言): 4男森! 04/29 14:34
951FL1ON (174留言): 置底不可以有女森,我森77 04/29 14:35
952Fxjp004123 (37留言): 你看過女生玩劫的嗎 04/29 14:35
954Fyorkyoung (52留言): 有啊 04/29 14:37
955Fyorkyoung (52留言): 你有看過男生玩索拉卡的ㄇ 04/29 14:38
956Fstan1231 (105留言): 你有看過女生尻槍ㄉㄇ 04/29 14:39
957FL1ON (174留言): 嘿咩 辛西亞也4男森ㄚ 04/29 14:39
958Fxjp004123 (37留言): 話說那個李星我女友 04/29 14:39
959Fxjp004123 (37留言): 上次花花給他拉克絲他骰掉 花花傻眼 04/29 14:40
960Fxjp004123 (37留言): 笑死 智障 04/29 14:40
961Fiovoecu (10留言): 不准汁妹 04/29 14:40
963FL1ON (174留言): 貓可愛 04/29 14:45
964Fcynthia0620 (46留言): 蛤 04/29 14:46
966FL1ON (174留言): 辛西亞是男森對不對! 04/29 14:52
967Fyorkyoung (52留言): 對啊 04/29 14:57
968Fyorkyoung (52留言): 辛西亞是我同班同學 04/29 14:57
969Fyorkyoung (52留言): 我的學校是男校 04/29 14:58
970FL1ON (174留言): 讚 04/29 15:00
971FL1ON (174留言): 好餓 我要吃飯 04/29 15:00
972Fyorkyoung (52留言): 沙茶炒羊肉^Q^ 04/29 15:02
973Fyorkyoung (52留言): 幹想到就肚子餓 04/29 15:03
974Fmeowchen (18留言): 沙茶是吧 等我一會 我找下食材 04/29 15:04
975Fmeowchen (18留言): 上菜囉 https://i.imgur.com/Z7l7gSo.jpg 04/29 15:13
976FL1ON (174留言): 喵陳這個是茶約克羊嗎? 04/29 15:16
977FL1ON (174留言): 沙茶約克羊! 04/29 15:16
978Fyorkyoung (52留言): 可愛♥ 04/29 15:17
980Fmeowchen (18留言): 欸嘿嘿 ♥ 04/29 15:22
981Fwryi1205 (41留言): 04/29 15:22
983Ffantasibear (103留言): 史丹家的廢物咧 04/29 15:30
984Fstan1231 (105留言): 死了 04/29 15:30
985FL1ON (174留言): 史丹那個我訂閱了 不錯 04/29 15:35
986Fstan1231 (105留言): 肥物 04/29 15:41
987FL1ON (174留言): 廢物 04/29 15:44
988Fdan5120 (98留言): ㄈ物 04/29 15:55
990FBenbenyale (40留言): 沙茶約克 04/29 16:20
991Fmeowchen (18留言): 對惹 羊羊直播ㄋ 04/29 16:24
992Fyorkyoung (52留言): cc 04/29 16:33
993Fyorkyoung (52留言): (^0^;) 04/29 16:33
994Fxjp004123 (37留言): 羊羊玩安妮 04/29 16:38
995Fyorkyoung (52留言): 0'_'0 04/29 16:39
996Fstan1231 (105留言): 肥物 04/29 16:41
997FL1ON (174留言): 史丹 你的廢物霸氣照呢 04/29 16:43
998Fstan1231 (105留言): 死了˙ 04/29 16:45
1000FL1ON (174留言): 嘻嘻 04/29 16:51
1001Ffantasibear (103留言): 揉廢物~~~~ 04/29 17:13
1002Fwryi1205 (41留言): 04/29 17:16
1003FRaverIan: ☺☺☺☺☺☺ 04/29 17:23
1004Fcynthia0620 (46留言): 嘔嘔嘔嘔嘔趁我不在居然這樣說我 04/29 17:49
1005Fcynthia0620 (46留言): 羊羊那麼老,我是年輕的小鮮肉欸 04/29 17:50
1006FGalLe5566 (122留言): 我想吃肉 04/29 18:08
1007Fpengjoker (6留言): 想吃火鍋 04/29 18:15
1008FGalLe5566 (122留言): 我也想吃火鍋 04/29 18:16
1009FGalLe5566 (122留言): 有肉的火鍋 04/29 18:16
1010FBenbenyale (40留言): 滷約克羊 04/29 18:18
1011Finvidia (28留言): 男森不能玩索拉卡ㄇ >_< 04/29 18:18
1012Fstan1231 (105留言): 給粒廢物 04/29 18:20
1013FGalLe5566 (122留言): 嗨四但 04/29 18:21
1014Fyorkyoung (52留言): 不然逆猜猜看我幾歲呀>_< 04/29 18:25
1015Fpengjoker (6留言): 25 04/29 18:35
1016FYEEman: 蓋 04/29 18:36
1017Finvidia (28留言): 25+1 04/29 18:36
1018Fwuke: 18 快要生日了 19 04/29 18:37
1019Fyorkyoung (52留言): :) 04/29 18:46
1020Fsnowman2: 好快,小戴超厲害,讚 04/29 18:49
1021Fcynthia0620 (46留言): 你不是還發過生日文 04/29 18:57
1022Fstan1231 (105留言): 肥物們 04/29 18:59
1023FSkydier (44留言): 50歲吧 我認識會畫畫的都年紀不小 04/29 19:20
1024FYU0121 (48留言): 魚ㄈ呢 04/29 19:40
1025Fstan1231 (105留言): ㄆ玉 04/29 19:43
1026FBenbenyale (40留言): 吃太飽 玩了 04/29 20:04
1027FBenbenyale (40留言): 直笛動物: 金魚 喵陳 約克羊 宅鳥 04/29 20:17
1028Fstan1231 (105留言): 給立ㄈ 04/29 20:34
1029Fyorkyoung (52留言): ㄈ三小 04/29 20:39
1030Fa98450333 (29留言): 幹啥 吃魚喝茶礙到你摟 04/29 20:50
1031FSkydier (44留言): 保健ㄈ 04/29 20:51
1032Fyorkyoung (52留言): 對了,我其實5000歲囉 04/29 20:53
1033Firumina: 幸運羊 04/29 21:00
1034FGalLe5566 (122留言): 所以你真的有嫖喔...我還以為他只是隨便說說... 04/29 21:12
1035Fblackbottle: 哦哦哦哦哦哦哦哦哦哦哦哦哦哦哦哦哦哦哦哦哦哦哦哦 04/29 21:13
1037FGalLe5566 (122留言): 這個可以有 這樣看起來好長喔 肥肚肚都不見了 04/29 21:23
1038FYU0121 (48留言): 嫖ㄈ呢 04/29 21:26
1039Fcynthia0620 (46留言): 好想睡 04/29 21:34
1040FHyver (42留言): 不准睡 不准早睡 不准比本肥早睡 不准比本肥還要早睡 04/29 21:41
1041Fdan5120 (98留言): 樓上ㄈ仔都幾點睡 04/29 21:51
1042FSkydier (44留言): 紅ㄈ一天工時都25小時的 哪像你們這些弱雞灣灣 04/29 21:52
1043Fdan5120 (98留言): ㄈ仔是在匪區ㄇ 04/29 21:58
1044Fstan1231 (105留言): 給立ㄈ 04/29 22:16
1045FGalLe5566 (122留言): 怎麼了? 04/29 22:17
1046FSkydier (44留言): 你累了? 04/29 22:18
1047FSkydier (44留言): 說好的 04/29 22:19
1048FGalLe5566 (122留言): 幸福呢 04/29 22:19
1049FSkydier (44留言): 妹妹呢 04/29 22:19
1050FSkydier (44留言): 插三小幹幹幹嘔嘔嘔嘔嘔嘔嘔幹幹嘔 04/29 22:19
1051FGalLe5566 (122留言): 哼 比手速 我是不會輸給任何人的!! 04/29 22:20
1052Fstan1231 (105留言): 北七 04/29 22:26
1053FSkydier (44留言): 市政 路 04/29 22:27
1055FGalLe5566 (122留言): 為什麼今天有打光了? 變好亮喔 然後他眼睛變好圓 04/29 22:29
1056Fstan1231 (105留言): 就是個廢物 04/29 22:30
1057Fasiasssh (45留言): 我的呂布終於絆6了 開心 04/29 22:30
1058Fasiasssh (45留言): 順便月神這個廢物也絆6了 04/29 22:31
1059FGalLe5566 (122留言): 欸欸 所以宅雅 你要抽多少蘿莉? 04/29 22:31
1060FSkydier (44留言): 插 04/29 22:31
1061Fasiasssh (45留言): 拚小學生寶1就好 04/29 22:31
1062Fstan1231 (105留言): 給粒廢吃屎抽不到之後的五星 04/29 22:32
1063Fasiasssh (45留言): 我準備200抽了 課金無上限 反正有個術打手hen賺 04/29 22:32
1064Fstan1231 (105留言): 我只有廢物三臟 04/29 22:33
1065FGalLe5566 (122留言): 我抽個十抽消業障就好 我覺得抽不到 04/29 22:33
1066FGalLe5566 (122留言): 三葬評價不是比小學生高嗎... 04/29 22:34
1067Fasiasssh (45留言): 三藏hen強耶 自充在混職關hen有用 打一發寶具hen有用 04/29 22:35
1068Fasiasssh (45留言): 缺點就是靈四卡面很醜 噁心 04/29 22:35
1069FGalLe5566 (122留言): 我在想要不要先把船長跟白槍練滿 聽說刷活動好用 04/29 22:35
1070FGalLe5566 (122留言): 三臟的卡面一整個醜 嘔嘔嘔嘔嘔嘔 04/29 22:36
1071FSkydier (44留言): 有比我醜? 04/29 22:37
1072FGalLe5566 (122留言): 因該有 那卡面真的不優... 04/29 22:37
1073FSkydier (44留言): 應喇幹 04/29 22:38
1074Fstan1231 (105留言): 三臟廢物 全buff打那支四不像不到8萬 04/29 22:38
1075FGalLe5566 (122留言): 藏啦幹 04/29 22:40
1076FGalLe5566 (122留言): 我反正有明狐了 傷害不夠...就慢慢嚕到夠就好 04/29 22:40
1077FSkydier (44留言): 撸喇幹 04/29 22:41
1078FGalLe5566 (122留言): 沒有關卡是蘭卡隊50回合不能解決的! 如果有 那就60回合 04/29 22:41
1079Fstan1231 (105留言): 有狐囂張逆 我有弓傻 大弓 月神 孔明啦 04/29 22:41
1080Fstan1231 (105留言): 還有滿突宇宙伊利亞 04/29 22:42
1081FGalLe5566 (122留言): 你不會覺得用口嚕比用手撸還要有感嗎? 04/29 22:42
1082FSkydier (44留言): ==... 04/29 22:42
1083FGalLe5566 (122留言): 為啥你一堆弓...我抽都抽不到...從之前的金皮卡開始抽 04/29 22:43
1084FGalLe5566 (122留言): 到上一次的弓傻 沒一隻抽到的... 04/29 22:43
1085FGalLe5566 (122留言): 等等 大公不是弓... 04/29 22:44
1086Fstan1231 (105留言): 阿塔喵寶二 紅A寶3 04/29 22:44
1087Fstan1231 (105留言): 月神寶2 弓傻寶2 04/29 22:44
1088FGalLe5566 (122留言): 我最多的是黑傻寶3 ... 不過我有藍傻就是 04/29 22:45
1089Fstan1231 (105留言): 打到13節ㄌ 04/29 22:45
1090FGalLe5566 (122留言): 第六章? 04/29 22:45
1091Fstan1231 (105留言): 囂張逆 我棉被王也寶2 04/29 22:45
1092Fasiasssh (45留言): 我也有藍卡隊 孔明,C狐,月神,大公,學妹,布丁卡 04/29 22:54
1093Fasiasssh (45留言): 不過C狐還是1級 也沒練技 04/29 22:54
1094Fstan1231 (105留言): 布丁卡雜魚就不要出來ㄌ 04/29 23:05
1095Ffriends29: 幹 我家附近停電 崩潰 04/29 23:14
1096Fmeowchen (18留言): 再半小時就正常了 04/29 23:49
1097Fyorkyoung (52留言): 好 04/29 23:53
1099FBenbenyale (40留言): wagi 04/30 00:02
1100FGalLe5566 (122留言): 好 這個可以 這毛色也很漂亮 04/30 00:04
1101FP2P (12留言): 來玩PUBG啦 04/30 00:19
1102Ffantasibear (103留言): 好美麗的虎斑 04/30 00:57
1103Fstan1231 (105留言): ㄆ玉放開你的髒手 04/30 01:51
1104Fdan5120 (98留言): 幹騎士要贏了 04/30 02:06
1105FMews (32留言): 今天 超級全力詹 04/30 02:08
1106Fdan5120 (98留言): 靠杯 烙賽一波 04/30 02:45
1107FL1ON (174留言): 全力詹不愧是當今天下第一人 04/30 03:47
1108FL1ON (174留言): 今天我詹要惹 04/30 03:48
1109FP2P (12留言): 幹他媽的 有生之年還能看到驚爆危機出新番QWQ 04/30 04:08
1110FP2P (12留言): 來回顧小說 04/30 04:09
1111FL1ON (174留言): 置底肥宅早安 04/30 06:16
1112Fa98450333 (29留言): 真早 04/30 06:27
1113Fpony666: 早安 04/30 06:39
1114FL1ON (174留言): ㄈ仔 小馬 早安 04/30 06:43
1115Finvidia (28留言): 安安安 04/30 07:05
1116Fwryi1205 (41留言): 04/30 07:12
1118FHyver (42留言): 早安,本肥覺得東泉過譽了,不好吃 04/30 08:18
1119FGalLe5566 (122留言): 早 今天的貓依然是貓 04/30 08:50
1120FGalLe5566 (122留言): 我在公三小? 算了 04/30 08:50
1121FSkydier (44留言): 嘔嘔嘔嘔嘔嘔 04/30 08:50
1122Fyorkyoung (52留言): XJP打lol 04/30 08:50
1123FGalLe5566 (122留言): 早喔嘔嘔嘔 04/30 08:51
1124Fwryi1205 (41留言): 噁 04/30 08:57
1125Fstan1231 (105留言): 廢物 04/30 08:57
1126Fyorkyoung (52留言): 請勿自介 04/30 09:01
1127FBenbenyale (40留言): 真的沒有男生不看a片的欸 04/30 09:07
1128FMews (32留言): 打摟不揪的? 04/30 09:22
1129Fstan1231 (105留言): 宅鳥揪人打槍 04/30 09:31
1130FL1ON (174留言): 顯卡 ryi1205 xjp 海耳 給力 天哥 約克羊 史丹 班班 宅鳥 早 04/30 10:15
1131FL1ON (174留言): 安 04/30 10:15
1132FL1ON (174留言): yorkyoung: 五樓都被大家意淫 04/30 10:40
1133Fasiasssh (45留言): ㄎㄎ 04/30 10:59
1134Fyorkyoung (52留言): :( 04/30 11:01
1135FSkydier (44留言): 三次元女友的五十嵐人設蒸蚌 04/30 11:15
1136Fxjp004123 (37留言): 工作辣,明天可 04/30 11:17
1138Fxjp004123 (37留言): 早上一直叫,因為挑食不吃罐頭,:( 04/30 11:22
1139Fasiasssh (45留言): 給我養 04/30 11:22
1140FSkydier (44留言): 不吃罐頭 就把牠做成罐頭 04/30 11:23
1141FMews (32留言): 肚子餓什麼都好吃 給他餓個三天三夜 看他還敢不敢挑食 04/30 11:28
1142Fstan1231 (105留言): 廢物 不吃就讓他餓 04/30 11:28
1143Fstan1231 (105留言): 我家的讓他餓還不是肥物 04/30 11:29
1144Fdan5120 (98留言): 早 04/30 11:30
1145FSkydier (44留言): 天空為什麼是藍色的 https://i.imgur.com/yy2tIUk.jpg 04/30 11:42
1146Fxjp004123 (37留言): 笑死 04/30 11:44
1147Fasiasssh (45留言): 銳利散色阿 04/30 11:54
1148Fyorkyoung (52留言): AZ第一季蠻好看的 04/30 12:01
1149FBenbenyale (40留言): 里昂早 天氣好 04/30 12:03
1150Fstan1231 (105留言): 廢物 04/30 12:13
1151Fiovoecu (10留言): 不准挑食 04/30 12:19
1152Ffantasibear (103留言): 墾丁丁~~ 04/30 12:39
1155FHyver (42留言): 摸摸羊 04/30 13:35
1157Fdan5120 (98留言): 肛門*羊 04/30 13:36
1158Fyorkyoung (52留言): ^0^ 04/30 13:44
1159FHyver (42留言): ※ ※ ※ ※ ※ ※ ※ ※ ※ ※ ※ ※ ※ ※ 04/30 13:50
1160Fa98450333 (29留言): 上班好忙 04/30 14:04
1161Fwryi1205 (41留言): 04/30 14:24
1162FL1ON (174留言): 宅亞 幻熊早安呦 對了,貓是一種很任性的動物,他如果很堅持 04/30 14:48
1163FL1ON (174留言): 不換罐頭,會餓到送醫給你看。我以前的狗和貓都是這樣= = 04/30 14:49
1164FL1ON (174留言): iou早安 04/30 14:50
1165Fgod060119 (17留言): 作弊被抓到是不是要被砍頭:( 04/30 14:51
1166Fdan5120 (98留言): 哇靠 跟風499 中華電信老人卡到死 04/30 14:59
1167FL1ON (174留言): 澄澄 丹丹 早安。澄澄怎麼了?丹丹,499很多人辦嗎? 04/30 15:00
1168Fdan5120 (98留言): 種花軍公教499最後一天r 04/30 15:15
1169FBenbenyale (40留言): 台灣有賣什麼貓罐頭口味嗎? 04/30 15:16
1170Fdan5120 (98留言): 鄉下訊號只能挑中華 話說辦一般業務的有人抗議了 04/30 15:18
1171Fdan5120 (98留言): 12個窗口都在卡辦499 04/30 15:19
1172FL1ON (174留言): 貓罐頭我沒研究呢 ~ 04/30 15:24
1173FBenbenyale (40留言): 住家附近空地半夜走路會看到幾隻貓 04/30 15:24
1174FL1ON (174留言): 如果要便宜的話,家樂福的應該還好?我窮的時候有買過。 04/30 15:28
1175FL1ON (174留言): 一般便利商店是40元一罐。 04/30 15:31
1176FL1ON (174留言): https://online.carrefour.com.tw/%E8%B2%93 這可以看一下。 04/30 15:31
1177FL1ON (174留言): 說到中華,因為我住台北所以沒差,都換別家了。 04/30 15:35
1178FL1ON (174留言): 中華太貴惹。 04/30 15:36
1179FBenbenyale (40留言): 還是要多觀察 我家附近有養一堆狗的 也有野狗 貓反而 04/30 15:43
1180FBenbenyale (40留言): 不常見 04/30 15:43
1181FL1ON (174留言): 斑斑人真好。 04/30 15:47
1182Fgod060119 (17留言): 蠢貓 沒東西吃就裝可愛 吃飽後就在囂張 04/30 15:47
1183FL1ON (174留言): 大家晚安,我要睡一下88 04/30 15:47
1184Fgod060119 (17留言): 早安 04/30 15:47
1185FL1ON (174留言): 澄澄說得對,貓就是愛賣萌 04/30 15:48
1186Fdan5120 (98留言): 4的 不然我也想跳台哥 04/30 15:48
1188Ffantasibear (103留言): 新電腦登入噓 04/30 15:55
1189FL1ON (174留言): https://i.imgur.com/mRvqwLU.jpg 我連家裡寬頻都換成4G吃 04/30 15:55
1190FL1ON (174留言): 到飽,相當於150M,也才799。 04/30 15:55
1191FL1ON (174留言): 幻熊,電腦好用ㄇ 04/30 15:58
1192Ffantasibear (103留言): 普通好。希望至少可撐5年。 04/30 16:03
1193Ffantasibear (103留言): 我正在研究 Acrobat pro 11 怎麼成功...... 04/30 16:03
1194FL1ON (174留言): 可以喇。 04/30 16:06
1195FL1ON (174留言): 11?不就破解弄下去就行? 04/30 16:06
1196FL1ON (174留言): 用什麼?一定要轉pdf還是? 04/30 16:08
1197Ffantasibear (103留言): 就正在找破解版啊~ 好怕hao123 04/30 16:10
1198FL1ON (174留言): 我上次幫客人弄是自動貓2017,同家公司應該還是同個套路 04/30 16:12
1199Ffantasibear (103留言): 自動貓? 04/30 16:14
1200FL1ON (174留言): autocad 04/30 16:14
1201FL1ON (174留言): 阿不過呢,祖國的軟體站有一定的風險,最好用win10+裝防毒 04/30 16:15
1202Ffantasibear (103留言): 我防毒現在抓Avast來用 04/30 16:19
1203Ffantasibear (103留言): 我現在抓到檔案了,詳細讀內容 04/30 16:20
1204Ffantasibear (103留言): 連office2016 也要金鑰=_= 04/30 16:20
1205Ffantasibear (103留言): 先研究office 比較簡單 04/30 16:21
1206Fkasion: 全職高手 好看A 04/30 16:24
1207Fstan1231 (105留言): 廢物 04/30 16:39
1208Fxjp004123 (37留言): https://i.imgur.com/83wv4Ea.jpg 好累好累 04/30 16:43
1209FL1ON (174留言): 彩猴早 04/30 16:43
1210FL1ON (174留言): 史丹 xjp 幻熊 彩猴 晚安 我又一直滑手機ㄌ 04/30 16:44
1212FBenbenyale (40留言): 這隻我有了 女僕奶好大 聲音好嗲 04/30 16:56
1213FSkydier (44留言): 脫脫愛梨~~~~~~~~~~~~~~~~~~~~~~~~~~~~~~~~~~~~~` 04/30 17:06
1214Fs81048112: 感謝挺管人士幫忙升官 04/30 17:17
1215Fjack2004501: https://i.imgur.com/8RZxCkO.jpg 04/30 17:34
1216Fwryi1205 (41留言): 04/30 17:36
1217Fa98450333 (29留言): 喔 04/30 18:53
1218FSkydier (44留言): hiㄈ皇 04/30 18:54
1219Fstan1231 (105留言): ㄈ 04/30 18:54
1220Fwryi1205 (41留言): 04/30 18:55
1221Fawfulday (8留言): 超可愛ㄉhttps://i.imgur.com/jSGyjyd.jpg 04/30 19:10
1222Fa98450333 (29留言): 這誰啊 我戀愛了 04/30 19:13
1223Finvidia (28留言): O_O 04/30 19:14
1224Fstan1231 (105留言): 給粒廢出來 04/30 19:50
1225FYU0121 (48留言): 燙茶ㄈ呢 04/30 20:03
1226FRaverIan: ㄤㄤㄤ 04/30 20:05
1227FSkydier (44留言): 這男的 04/30 20:09
1229Finvidia (28留言): 夾前面比較可i 04/30 20:14
1232FYU0158: 痣癢 好笑嗎 04/30 20:31
1233Fwryi1205 (41留言): 04/30 20:32
1234Fkiminocodo (19留言): https://i.imgur.com/G0gZ0ld.jpg 愛你們這群肥宅^_^ 04/30 20:36
1235Fstan1231 (105留言): ㄆ玉給我黃金 04/30 20:37
1236FYU0121 (48留言): 跟菌有要 04/30 20:38
1237Fstan1231 (105留言): ㄆ玉 04/30 21:02
1238FBenbenyale (40留言): https://i.imgur.com/yWoHN3A.jpg 迷上了一個灰髮阿嬤 04/30 21:23
1239Fstan1231 (105留言): 廢物 04/30 21:30
1240Fa98450333 (29留言): 操 158怎麼又出現了 04/30 21:30
1241Fgod060119 (17留言): 早安 有尻一槍提提神嗎? 04/30 21:32
1242Fwryi1205 (41留言): 請給我黃金 04/30 21:33
1243Ffantasibear (103留言): Chrome有夠爛無法看youtube,改回火狐 04/30 21:33
1244Fstan1231 (105留言): 我看得很爽 你電腦太爛 50nt收 04/30 21:36
1245Fdan5120 (98留言): 怎摸會不能看ㄋ 04/30 21:42
1246Fdan5120 (98留言): 看油管記得裝adblock 04/30 21:43
1247Ffantasibear (103留言): 我也不知道啊,找一堆方法都失敗 04/30 21:47
1250Ffantasibear (103留言): 哪來沒節操的貓咪 04/30 22:10
1251Finvidia (28留言): 之前好像遇過 應該是要更新什麼東西 04/30 22:11
1252Ffantasibear (103留言): 我一直都用火狐,每次換成chrome一下就不耐煩了 04/30 22:14
1255Fkiminocodo (19留言): 史丹人好好喔>\\\\\\\< 04/30 22:21
1256Fkiminocodo (19留言): 既然人都那麼好了,罵我一句好不好>\\\\\\< 04/30 22:21
1257Fkiminocodo (19留言): 快罵我肥或廢還是匪也都可以>\\\\\\\\\\\\\\\< 04/30 22:22
1258FL1ON (174留言): 肥宅 04/30 22:27
1259Fdan5120 (98留言): 抖M 04/30 22:46
1260Fkiminocodo (19留言): 嗚嗚嗚嗚獅子,就你不能說我肥宅喇,我會難過… 04/30 22:48
1261Fkiminocodo (19留言): 嗚嗚嗚嗚嗚嗚嗚嗚嗚嗚嗚嗚嗚嗚嗚嗚嗚嗚:( 04/30 22:48
1262Fmeowchen (18留言): -^- 04/30 22:48
1263Fkiminocodo (19留言): 樓上你那個是什麼意思的表情啊? 04/30 22:51
1264Ffantasibear (103留言): 史丹那個網頁我有看啊,但我找不到哪可要求 04/30 22:52
1265Fmeowchen (18留言): 眼睛閉起來鼻子尖尖的表情 04/30 22:53
1266Ffantasibear (103留言): 我的顯示是說「此瀏覽器可能可以用」這類的話 04/30 22:53
1267Fdan5120 (98留言): win 10都更新過了嗎 04/30 22:53
1268Fstan1231 (105留言): 廢物電腦 50收 04/30 22:57
1270FGalLe5566 (122留言): 有兩個可能 一是硬體 二是軟體 如果是硬體問題 那沒救 04/30 22:58
1271FGalLe5566 (122留言): 因為電腦你已經買了 二是軟體 那也沒救 因為那是廠商的 04/30 22:59
1272FGalLe5566 (122留言): 問題 你這裡也沒辦法改 04/30 22:59
看更多 Kay731 的文章,或回到 gossiping 看板

[公告] 四月份置底閒聊文  ⋅  有 0 則留言。

推薦文章